GFSCGP_500_temp_000.txt.gz
Temp
-12 -12 -10 -10 -11 -11 -11 -10 -9 -10 -10 -10 -9 -9 -10 -12 -12 -11 -11 -12 -11 -11 -12 -13 -13 -14 -13 -12 -13 -13 -13 -12 -12 -12 -12 -12 -12 -13 -12 -13 -12 -12 -12 -12
-11 -9 -10 -12 -12 -11 -11 -10 -9 -10 -11 -11 -10 -9 -10 -12 -12 -12 -11 -11 -11 -11 -12 -12 -13 -13 -12 -12 -13 -13 -13 -12 -12 -12 -12 -13 -12 -13 -13 -13 -12 -12 -13 -13
-11 -11 -12 -12 -11 -11 -10 -10 -10 -10 -11 -11 -11 -9 -11 -11 -11 -11 -11 -11 -11 -12 -12 -13 -13 -13 -12 -13 -13 -13 -12 -12 -12 -12 -13 -12 -12 -12 -12 -12 -12 -12 -13 -13
-10 -11 -12 -12 -10 -10 -9 -10 -10 -11 -11 -11 -12 -10 -11 -11 -11 -11 -11 -10 -11 -12 -13 -13 -13 -12 -12 -13 -13 -12 -12 -12 -12 -12 -13 -12 -12 -12 -12 -13 -13 -13 -13 -13
-9 -9 -10 -10 -10 -10 -9 -10 -11 -11 -12 -12 -12 -11 -10 -11 -10 -9 -9 -11 -11 -12 -13 -13 -12 -12 -13 -13 -12 -12 -12 -12 -12 -12 -12 -13 -12 -13 -13 -13 -12 -12 -13 -13
-10 -11 -11 -10 -10 -11 -10 -11 -12 -12 -11 -11 -11 -11 -10 -11 -10 -9 -10 -10 -11 -12 -12 -11 -12 -12 -12 -12 -12 -12 -12 -12 -12 -12 -12 -12 -12 -13 -13 -13 -13 -13 -13 -13
-10 -10 -10 -10 -10 -11 -11 -11 -12 -12 -11 -8 -11 -11 -11 -11 -10 -10 -9 -11 -12 -11 -11 -11 -12 -12 -12 -12 -12 -12 -12 -12 -12 -12 -12 -12 -12 -12 -13 -13 -12 -13 -13 -14
-10 -10 -10 -9 -9 -10 -10 -12 -11 -10 -10 -10 -12 -11 -11 -11 -10 -10 -10 -11 -12 -12 -11 -11 -12 -12 -12 -11 -12 -12 -12 -11 -12 -12 -12 -12 -12 -12 -13 -13 -12 -13 -13 -14
-10 -10 -11 -10 -11 -10 -11 -10 -10 -10 -12 -12 -11 -11 -11 -10 -10 -10 -11 -12 -12 -11 -11 -11 -11 -11 -11 -12 -12 -12 -12 -11 -12 -12 -12 -12 -12 -13 -13 -13 -12 -13 -13 -14
-11 -10 -11 -11 -11 -11 -10 -11 -11 -12 -12 -11 -11 -11 -10 -10 -10 -10 -11 -12 -11 -11 -11 -11 -11 -11 -11 -11 -12 -12 -12 -11 -11 -12 -12 -11 -12 -12 -13 -13 -12 -13 -13 -14
-12 -11 -11 -12 -9 -9 -10 -11 -12 -12 -11 -11 -11 -10 -11 -12 -11 -11 -11 -11 -10 -10 -10 -11 -11 -11 -11 -11 -11 -11 -12 -12 -12 -12 -12 -12 -12 -12 -13 -13 -13 -13 -13 -13
-12 -12 -12 -10 -10 -11 -11 -11 -10 -10 -10 -11 -11 -9 -11 -11 -11 -12 -11 -11 -11 -11 -10 -11 -11 -11 -12 -11 -11 -12 -12 -12 -12 -12 -12 -12 -12 -12 -13 -12 -12 -13 -13 -13
-13 -13 -12 -11 -11 -11 -11 -11 -11 -10 -12 -11 -11 -10 -10 -10 -10 -11 -11 -11 -12 -10 -10 -10 -11 -11 -12 -12 -11 -12 -12 -12 -12 -12 -12 -13 -12 -13 -13 -13 -13 -13 -13 -13
-12 -12 -12 -11 -10 -11 -10 -11 -11 -11 -11 -10 -10 -10 -10 -9 -10 -11 -11 -11 -11 -11 -10 -11 -11 -11 -12 -12 -11 -12 -12 -12 -12 -12 -12 -12 -12 -13 -13 -13 -13 -13 -13 -13
-12 -11 -11 -11 -11 -11 -11 -10 -10 -10 -10 -10 -10 -10 -10 -10 -11 -11 -11 -10 -11 -11 -10 -11 -11 -11 -12 -12 -11 -12 -12 -12 -12 -12 -12 -12 -12 -13 -12 -13 -13 -13 -13 -13
-12 -11 -11 -11 -12 -12 -11 -11 -11 -11 -10 -10 -10 -10 -11 -11 -11 -11 -10 -10 -10 -10 -10 -11 -11 -11 -11 -12 -11 -12 -12 -12 -12 -12 -12 -12 -12 -12 -12 -13 -12 -13 -13 -14
-12 -12 -12 -11 -12 -12 -12 -12 -11 -12 -11 -11 -10 -9 -11 -10 -10 -11 -10 -10 -10 -10 -11 -10 -11 -11 -11 -11 -11 -11 -12 -12 -12 -12 -12 -12 -12 -12 -12 -12 -12 -13 -13 -14
-13 -12 -11 -11 -13 -13 -11 -12 -11 -10 -10 -11 -11 -10 -11 -11 -10 -11 -12 -11 -10 -11 -10 -10 -10 -11 -11 -11 -11 -11 -12 -12 -12 -12 -12 -12 -12 -12 -12 -12 -12 -12 -13 -14
-14 -13 -11 -12 -12 -12 -12 -12 -11 -11 -11 -12 -11 -11 -10 -11 -11 -10 -10 -10 -10 -11 -11 -10 -10 -11 -11 -11 -11 -11 -12 -12 -11 -12 -12 -12 -12 -12 -12 -12 -12 -13 -13 -13
-15 -14 -13 -12 -13 -13 -12 -13 -12 -12 -11 -11 -11 -11 -10 -11 -9 -9 -10 -10 -10 -10 -11 -10 -10 -10 -11 -11 -12 -12 -12 -12 -12 -12 -12 -12 -12 -12 -12 -12 -13 -13 -13 -13
-15 -15 -14 -14 -14 -13 -13 -13 -13 -12 -12 -12 -12 -11 -11 -10 -10 -10 -10 -10 -10 -10 -11 -11 -10 -10 -11 -11 -12 -12 -12 -12 -12 -12 -12 -13 -12 -13 -13 -13 -13 -13 -13 -13
-15 -15 -14 -15 -14 -14 -13 -13 -12 -12 -12 -12 -13 -12 -11 -11 -11 -10 -10 -10 -10 -10 -10 -11 -10 -10 -10 -11 -12 -12 -12 -12 -12 -12 -12 -13 -13 -13 -13 -13 -13 -13 -13 -13
-15 -15 -14 -15 -14 -14 -14 -13 -13 -13 -12 -12 -12 -13 -12 -11 -11 -10 -10 -10 -10 -10 -10 -11 -11 -10 -10 -11 -11 -12 -12 -12 -12 -12 -13 -13 -13 -13 -13 -12 -12 -12 -12 -12
-14 -15 -15 -15 -15 -14 -14 -13 -13 -13 -13 -12 -12 -12 -12 -12 -11 -11 -11 -10 -10 -10 -10 -10 -11 -10 -11 -11 -11 -12 -12 -12 -12 -12 -12 -13 -13 -13 -13 -12 -12 -12 -12 -12
-15 -15 -15 -14 -15 -14 -14 -13 -13 -13 -13 -13 -12 -12 -12 -13 -11 -11 -11 -11 -10 -10 -10 -11 -11 -11 -11 -11 -11 -11 -12 -12 -12 -12 -12 -13 -13 -13 -13 -13 -13 -13 -13 -13
-15 -14 -15 -15 -14 -14 -14 -13 -13 -14 -13 -13 -12 -13 -12 -12 -12 -11 -12 -11 -11 -10 -11 -11 -11 -10 -10 -11 -11 -11 -11 -11 -12 -12 -12 -12 -12 -13 -13 -13 -13 -13 -13 -13

GFSCGP_500_temp_003.txt.gz
Temp
-12 -12 -9 -10 -10 -11 -11 -11 -11 -10 -11 -11 -10 -9 -9 -10 -9 -10 -10 -11 -11 -11 -12 -12 -13 -13 -13 -13 -13 -13 -13 -13 -13 -13 -13 -13 -13 -13 -13 -12 -13 -13 -13 -13
-12 -9 -11 -12 -12 -12 -12 -11 -11 -10 -11 -11 -10 -10 -10 -10 -10 -10 -10 -10 -11 -11 -11 -13 -13 -13 -14 -14 -13 -13 -13 -13 -13 -13 -13 -13 -13 -13 -13 -13 -13 -13 -13 -13
-11 -11 -12 -12 -12 -12 -11 -11 -11 -10 -11 -12 -10 -9 -10 -10 -10 -10 -10 -11 -11 -11 -12 -13 -13 -13 -13 -14 -13 -13 -13 -12 -12 -12 -13 -13 -13 -13 -13 -13 -13 -13 -13 -13
-11 -12 -12 -12 -11 -12 -11 -12 -12 -11 -11 -11 -11 -10 -10 -11 -10 -10 -10 -10 -10 -11 -13 -13 -13 -13 -13 -13 -13 -12 -12 -12 -12 -12 -12 -13 -13 -13 -13 -13 -12 -13 -13 -13
-9 -11 -11 -11 -11 -13 -11 -13 -12 -11 -11 -11 -11 -10 -8 -11 -10 -11 -10 -10 -11 -11 -11 -13 -13 -13 -12 -13 -12 -12 -12 -12 -12 -12 -12 -12 -12 -13 -13 -13 -13 -13 -13 -13
-11 -11 -12 -12 -12 -13 -13 -13 -12 -11 -11 -10 -10 -11 -9 -11 -11 -10 -10 -11 -11 -11 -12 -12 -12 -12 -12 -12 -12 -12 -12 -12 -12 -12 -12 -12 -12 -13 -13 -13 -13 -13 -13 -14
-11 -11 -10 -11 -11 -12 -13 -12 -11 -11 -10 -9 -10 -12 -10 -10 -10 -10 -11 -11 -10 -11 -12 -11 -11 -12 -12 -12 -12 -12 -12 -12 -12 -12 -12 -12 -12 -12 -13 -13 -13 -13 -14 -14
-11 -11 -10 -10 -10 -10 -10 -11 -10 -10 -10 -9 -10 -11 -10 -10 -9 -11 -11 -11 -11 -12 -11 -12 -11 -11 -12 -12 -12 -11 -12 -12 -12 -12 -12 -12 -12 -12 -13 -13 -13 -13 -14 -14
-12 -11 -11 -11 -11 -11 -10 -10 -11 -11 -10 -10 -11 -10 -10 -9 -10 -11 -11 -11 -11 -12 -12 -12 -11 -11 -12 -11 -12 -11 -11 -12 -11 -12 -12 -12 -12 -12 -13 -13 -13 -13 -13 -14
-13 -12 -12 -12 -12 -11 -11 -11 -11 -10 -10 -11 -9 -9 -9 -10 -10 -11 -11 -11 -12 -13 -12 -11 -11 -11 -12 -12 -11 -11 -11 -12 -12 -12 -11 -12 -12 -12 -12 -13 -13 -13 -13 -14
-14 -13 -12 -12 -10 -11 -11 -11 -11 -11 -10 -10 -9 -9 -10 -10 -10 -10 -11 -12 -13 -12 -11 -11 -11 -11 -11 -12 -11 -11 -12 -12 -12 -12 -12 -12 -12 -12 -12 -12 -13 -13 -13 -13
-13 -13 -13 -11 -11 -11 -11 -11 -10 -10 -9 -10 -9 -9 -10 -10 -10 -10 -11 -13 -12 -11 -11 -11 -10 -11 -11 -12 -12 -12 -12 -12 -13 -13 -12 -12 -12 -12 -12 -13 -12 -13 -13 -13
-13 -12 -12 -13 -12 -12 -10 -10 -10 -11 -11 -10 -10 -10 -10 -9 -10 -10 -11 -13 -11 -11 -11 -10 -11 -11 -11 -12 -12 -12 -12 -12 -12 -12 -12 -12 -12 -12 -13 -12 -12 -13 -12 -13
-12 -11 -11 -11 -10 -10 -10 -10 -10 -11 -11 -10 -9 -10 -11 -11 -10 -10 -12 -12 -12 -11 -10 -10 -11 -11 -11 -12 -12 -11 -12 -12 -12 -12 -12 -12 -12 -12 -12 -12 -13 -13 -13 -13
-12 -11 -11 -11 -11 -11 -10 -10 -10 -9 -9 -10 -9 -10 -11 -10 -10 -11 -12 -11 -12 -11 -10 -10 -11 -11 -11 -12 -12 -11 -12 -12 -12 -12 -12 -12 -12 -12 -12 -13 -13 -13 -13 -13
-12 -11 -11 -11 -11 -11 -11 -11 -11 -11 -10 -11 -11 -11 -11 -11 -10 -10 -11 -11 -12 -11 -10 -10 -11 -10 -11 -12 -12 -11 -11 -11 -12 -12 -12 -12 -12 -12 -13 -12 -13 -13 -13 -13
-12 -12 -11 -11 -12 -11 -11 -11 -11 -11 -11 -11 -10 -10 -11 -11 -10 -10 -11 -11 -11 -11 -9 -10 -11 -11 -11 -11 -12 -11 -11 -11 -12 -12 -12 -12 -12 -12 -12 -13 -13 -13 -13 -14
-13 -12 -11 -11 -12 -12 -9 -11 -11 -11 -11 -11 -11 -11 -11 -12 -11 -11 -11 -11 -12 -11 -10 -10 -10 -11 -11 -11 -11 -11 -11 -11 -12 -12 -12 -12 -12 -12 -12 -12 -13 -13 -13 -13
-14 -13 -11 -12 -12 -11 -11 -12 -12 -12 -12 -12 -12 -12 -12 -12 -12 -11 -11 -11 -12 -11 -11 -10 -10 -11 -11 -11 -11 -11 -11 -11 -12 -12 -12 -12 -12 -12 -12 -12 -13 -13 -13 -13
-15 -14 -13 -12 -13 -12 -12 -12 -12 -12 -12 -12 -12 -12 -12 -12 -11 -10 -11 -11 -11 -11 -11 -10 -10 -11 -11 -11 -12 -12 -12 -11 -12 -12 -12 -12 -12 -12 -12 -12 -12 -12 -13 -13
-16 -15 -14 -15 -14 -13 -13 -12 -13 -13 -11 -11 -11 -12 -13 -12 -10 -10 -10 -11 -11 -11 -11 -10 -10 -11 -11 -11 -11 -12 -12 -12 -12 -12 -12 -12 -12 -12 -12 -13 -13 -13 -12 -13
-16 -16 -16 -16 -14 -13 -13 -13 -13 -13 -12 -11 -11 -11 -12 -11 -10 -11 -10 -11 -10 -10 -11 -10 -10 -11 -11 -11 -11 -12 -12 -12 -12 -12 -12 -12 -13 -13 -13 -13 -13 -13 -13 -12
-16 -15 -16 -15 -15 -14 -14 -13 -13 -13 -12 -11 -11 -11 -11 -11 -11 -11 -10 -10 -10 -10 -11 -11 -10 -10 -11 -11 -11 -12 -12 -12 -12 -12 -12 -12 -12 -13 -13 -13 -13 -13 -13 -13
-17 -16 -15 -15 -15 -14 -14 -13 -13 -13 -12 -12 -12 -11 -11 -11 -11 -10 -11 -11 -11 -10 -11 -11 -10 -10 -10 -11 -12 -12 -12 -12 -12 -12 -12 -12 -12 -13 -13 -13 -13 -12 -12 -12
-17 -15 -15 -15 -14 -15 -14 -13 -13 -13 -13 -12 -12 -12 -11 -10 -11 -10 -11 -11 -11 -11 -11 -10 -11 -10 -10 -11 -11 -11 -12 -12 -12 -12 -12 -12 -12 -12 -13 -13 -12 -12 -13 -13
-18 -16 -16 -15 -14 -14 -14 -14 -13 -14 -13 -12 -12 -12 -11 -11 -11 -10 -10 -11 -11 -11 -11 -11 -11 -10 -10 -10 -11 -11 -11 -12 -12 -12 -12 -12 -12 -12 -13 -13 -13 -13 -13 -13

GFSCGP_500_temp_006.txt.gz
Temp
-12 -12 -9 -10 -10 -10 -11 -12 -11 -11 -11 -12 -12 -11 -11 -10 -11 -10 -10 -10 -10 -10 -10 -11 -11 -11 -13 -14 -13 -13 -14 -13 -13 -13 -13 -13 -13 -13 -13 -13 -13 -13 -13 -13
-12 -10 -10 -11 -11 -12 -12 -12 -11 -11 -11 -12 -12 -11 -11 -10 -11 -11 -11 -11 -10 -10 -10 -11 -11 -12 -13 -14 -13 -14 -14 -13 -13 -13 -13 -13 -13 -13 -13 -13 -14 -13 -13 -13
-12 -10 -12 -12 -12 -12 -12 -12 -11 -11 -12 -12 -12 -11 -11 -10 -11 -11 -11 -11 -10 -9 -10 -11 -11 -12 -13 -13 -13 -14 -13 -13 -12 -12 -13 -13 -13 -13 -13 -13 -13 -13 -13 -13
-12 -12 -12 -12 -12 -12 -12 -12 -13 -13 -13 -12 -13 -10 -10 -10 -10 -11 -11 -11 -10 -10 -10 -10 -11 -12 -13 -13 -13 -13 -13 -12 -12 -13 -13 -13 -12 -12 -13 -13 -13 -13 -13 -13
-10 -11 -11 -11 -11 -13 -12 -14 -12 -13 -12 -12 -12 -11 -8 -10 -10 -10 -12 -10 -10 -10 -10 -10 -12 -12 -12 -12 -12 -12 -12 -12 -12 -12 -12 -12 -12 -12 -13 -13 -13 -14 -13 -14
-12 -12 -12 -11 -12 -12 -13 -13 -13 -13 -12 -9 -10 -11 -8 -10 -11 -11 -10 -11 -11 -10 -11 -11 -11 -11 -11 -12 -12 -12 -12 -12 -12 -12 -12 -12 -12 -12 -12 -13 -13 -13 -14 -14
-11 -12 -11 -12 -12 -12 -12 -13 -13 -12 -12 -11 -11 -10 -9 -11 -10 -10 -11 -11 -10 -11 -10 -10 -11 -11 -11 -11 -12 -11 -12 -12 -12 -12 -12 -12 -12 -12 -12 -12 -13 -13 -14 -14
-12 -12 -11 -11 -11 -11 -11 -12 -12 -12 -12 -11 -10 -10 -10 -11 -11 -11 -11 -11 -11 -10 -10 -11 -11 -11 -11 -11 -11 -12 -12 -12 -12 -12 -12 -12 -12 -12 -12 -13 -13 -13 -14 -14
-13 -12 -13 -12 -12 -12 -11 -11 -12 -12 -12 -11 -10 -10 -10 -11 -10 -11 -11 -11 -11 -11 -10 -11 -11 -11 -11 -11 -12 -12 -12 -12 -12 -12 -12 -12 -12 -12 -12 -12 -13 -13 -14 -14
-13 -13 -13 -12 -12 -12 -12 -12 -12 -11 -10 -10 -10 -9 -10 -11 -10 -11 -12 -12 -11 -11 -11 -11 -11 -11 -11 -11 -12 -12 -12 -12 -12 -12 -12 -12 -12 -12 -12 -13 -13 -13 -13 -14
-13 -13 -13 -13 -11 -11 -11 -12 -11 -12 -11 -10 -10 -9 -10 -11 -11 -11 -12 -12 -12 -11 -12 -11 -11 -11 -11 -11 -12 -12 -12 -12 -12 -13 -12 -12 -12 -12 -12 -13 -13 -13 -13 -14
-14 -13 -13 -12 -12 -12 -12 -12 -11 -10 -10 -10 -10 -10 -10 -11 -11 -12 -12 -12 -12 -12 -11 -10 -10 -11 -11 -11 -12 -12 -12 -12 -12 -12 -12 -12 -12 -12 -12 -12 -13 -12 -13 -14
-13 -13 -13 -12 -12 -12 -11 -11 -10 -11 -11 -10 -10 -10 -11 -12 -11 -12 -12 -12 -12 -12 -10 -10 -10 -11 -11 -11 -12 -12 -12 -12 -12 -12 -12 -12 -12 -12 -12 -12 -13 -12 -13 -13
-13 -12 -12 -11 -10 -10 -10 -11 -11 -11 -10 -10 -9 -11 -11 -11 -10 -12 -12 -11 -12 -11 -10 -10 -11 -11 -11 -11 -12 -12 -12 -12 -12 -12 -12 -12 -12 -12 -12 -13 -12 -12 -13 -13
-13 -12 -12 -11 -11 -11 -11 -11 -11 -11 -10 -10 -10 -11 -12 -11 -11 -12 -12 -11 -12 -10 -10 -10 -11 -11 -11 -11 -11 -12 -12 -12 -12 -12 -12 -12 -12 -12 -12 -13 -12 -12 -13 -13
-14 -13 -12 -12 -12 -11 -11 -11 -11 -11 -11 -10 -11 -11 -12 -12 -11 -13 -12 -12 -12 -11 -10 -10 -11 -11 -11 -11 -11 -12 -11 -12 -12 -12 -12 -12 -12 -12 -12 -13 -13 -13 -13 -13
-14 -13 -12 -12 -13 -12 -12 -11 -11 -11 -11 -11 -10 -11 -12 -12 -11 -13 -12 -11 -11 -11 -10 -10 -10 -11 -11 -11 -11 -11 -11 -11 -12 -12 -12 -12 -12 -11 -12 -12 -13 -13 -14 -14
-15 -13 -12 -12 -13 -13 -11 -12 -12 -11 -11 -10 -10 -12 -12 -12 -13 -12 -12 -12 -12 -11 -10 -10 -10 -11 -11 -11 -11 -11 -11 -11 -11 -12 -12 -12 -12 -12 -12 -12 -13 -13 -14 -14
-16 -13 -12 -13 -13 -13 -12 -13 -12 -11 -11 -10 -10 -11 -12 -12 -12 -11 -11 -11 -11 -10 -10 -10 -10 -11 -11 -11 -11 -11 -11 -11 -12 -12 -12 -12 -12 -12 -12 -13 -13 -13 -14 -13
-16 -14 -14 -13 -13 -13 -12 -12 -13 -11 -11 -10 -11 -11 -11 -12 -11 -12 -11 -12 -11 -10 -10 -10 -11 -11 -11 -11 -11 -11 -12 -12 -12 -12 -12 -12 -12 -12 -12 -13 -13 -13 -13 -13
-17 -16 -15 -14 -14 -13 -13 -13 -13 -12 -11 -10 -11 -11 -11 -12 -11 -12 -11 -11 -11 -10 -10 -10 -10 -11 -11 -11 -11 -11 -12 -12 -12 -12 -12 -12 -13 -13 -12 -13 -13 -13 -13 -13
-18 -17 -17 -15 -14 -15 -14 -14 -13 -12 -11 -11 -11 -11 -11 -12 -11 -13 -11 -11 -11 -10 -10 -10 -10 -10 -11 -11 -11 -11 -12 -12 -12 -12 -13 -13 -13 -13 -13 -13 -13 -13 -13 -13
-18 -17 -17 -16 -14 -14 -14 -13 -12 -12 -11 -11 -11 -11 -12 -11 -10 -12 -11 -11 -11 -11 -10 -10 -10 -10 -11 -11 -11 -12 -12 -12 -12 -12 -13 -13 -13 -13 -13 -13 -13 -12 -13 -13
-18 -17 -17 -16 -14 -14 -15 -13 -13 -13 -12 -11 -11 -11 -12 -11 -11 -12 -11 -11 -10 -11 -11 -10 -10 -10 -11 -11 -12 -12 -12 -12 -12 -12 -12 -13 -13 -13 -13 -13 -13 -13 -12 -13
-18 -17 -16 -16 -15 -15 -15 -14 -14 -13 -12 -12 -11 -11 -12 -11 -12 -12 -11 -11 -10 -11 -11 -11 -10 -10 -10 -11 -11 -12 -12 -12 -12 -12 -12 -12 -13 -13 -13 -13 -13 -13 -13 -13
-19 -18 -17 -16 -16 -15 -15 -15 -14 -14 -13 -12 -12 -11 -12 -12 -11 -12 -11 -11 -11 -10 -11 -11 -11 -10 -10 -11 -11 -12 -12 -12 -12 -12 -12 -12 -12 -13 -13 -13 -13 -13 -13 -13

GFSCGP_500_temp_009.txt.gz
Temp
-12 -13 -10 -10 -11 -11 -12 -11 -11 -11 -11 -12 -12 -12 -11 -11 -11 -12 -11 -10 -11 -11 -11 -11 -10 -10 -11 -11 -12 -12 -13 -13 -14 -14 -13 -13 -13 -13 -13 -13 -13 -13 -13 -13
-12 -10 -10 -12 -12 -12 -12 -12 -11 -11 -12 -12 -12 -11 -11 -11 -11 -12 -11 -10 -11 -11 -11 -10 -10 -10 -11 -11 -12 -13 -13 -14 -14 -14 -13 -12 -12 -13 -13 -13 -13 -13 -13 -14
-11 -8 -12 -13 -12 -12 -12 -11 -12 -13 -13 -13 -13 -11 -11 -11 -11 -11 -11 -10 -11 -11 -11 -10 -10 -10 -10 -11 -13 -12 -13 -13 -14 -13 -12 -12 -12 -13 -13 -13 -13 -13 -13 -14
-12 -12 -11 -13 -12 -12 -12 -13 -13 -13 -13 -12 -13 -11 -10 -10 -11 -11 -11 -11 -11 -11 -10 -10 -10 -10 -10 -11 -12 -12 -13 -13 -13 -12 -12 -12 -12 -13 -12 -12 -12 -13 -14 -14
-10 -11 -11 -11 -12 -12 -12 -13 -13 -13 -13 -12 -11 -11 -8 -10 -11 -10 -11 -11 -12 -10 -10 -9 -10 -10 -10 -11 -11 -12 -12 -12 -12 -12 -12 -12 -12 -12 -12 -12 -13 -13 -13 -14
-13 -12 -12 -11 -12 -13 -12 -12 -12 -13 -13 -11 -11 -10 -8 -10 -10 -11 -11 -11 -10 -10 -9 -10 -10 -10 -11 -11 -11 -11 -12 -12 -12 -12 -12 -12 -12 -12 -12 -13 -13 -14 -14 -14
-13 -12 -12 -12 -12 -13 -12 -12 -13 -12 -13 -10 -11 -11 -10 -10 -10 -10 -10 -10 -10 -10 -10 -10 -10 -11 -11 -11 -11 -11 -11 -12 -12 -12 -12 -12 -12 -12 -12 -13 -13 -13 -14 -14
-13 -13 -12 -11 -11 -11 -12 -12 -12 -12 -12 -12 -11 -10 -10 -11 -11 -10 -10 -11 -10 -10 -10 -10 -11 -11 -11 -11 -11 -11 -12 -12 -11 -12 -12 -12 -12 -12 -13 -13 -13 -13 -14 -14
-14 -13 -13 -13 -12 -12 -11 -11 -12 -12 -12 -12 -11 -11 -10 -11 -10 -11 -11 -11 -11 -11 -10 -11 -10 -11 -11 -11 -11 -12 -12 -11 -12 -12 -12 -12 -12 -13 -13 -13 -13 -13 -14 -14
-14 -13 -13 -13 -13 -12 -12 -12 -12 -12 -12 -11 -10 -10 -10 -11 -11 -11 -11 -11 -11 -10 -11 -11 -11 -11 -11 -11 -11 -12 -12 -12 -12 -12 -12 -13 -12 -13 -13 -13 -13 -13 -13 -14
-16 -13 -14 -14 -11 -12 -11 -11 -11 -12 -12 -11 -10 -10 -11 -11 -12 -11 -11 -11 -10 -11 -11 -11 -11 -11 -11 -11 -11 -12 -12 -12 -12 -12 -12 -12 -13 -12 -12 -13 -13 -13 -13 -13
-17 -15 -14 -12 -12 -12 -12 -12 -12 -12 -11 -11 -11 -10 -10 -11 -11 -12 -12 -11 -10 -11 -11 -11 -10 -11 -11 -11 -12 -12 -12 -12 -12 -12 -12 -12 -13 -12 -12 -12 -12 -13 -13 -13
-17 -16 -15 -14 -13 -12 -12 -12 -11 -12 -12 -11 -10 -11 -11 -12 -12 -11 -11 -11 -10 -11 -12 -11 -10 -11 -11 -11 -12 -12 -12 -12 -12 -12 -12 -12 -12 -12 -12 -12 -12 -13 -13 -13
-17 -15 -14 -13 -12 -11 -11 -12 -12 -12 -11 -10 -10 -12 -12 -12 -12 -11 -11 -11 -11 -12 -11 -10 -10 -11 -11 -11 -11 -11 -12 -11 -12 -12 -12 -12 -12 -12 -12 -12 -12 -13 -13 -13
-16 -16 -14 -13 -13 -12 -12 -12 -12 -11 -11 -10 -11 -12 -12 -12 -12 -11 -11 -11 -12 -12 -11 -10 -10 -11 -11 -11 -11 -11 -11 -11 -12 -12 -12 -12 -12 -12 -12 -12 -12 -13 -13 -13
-17 -16 -15 -14 -13 -13 -12 -12 -11 -12 -11 -11 -11 -12 -12 -12 -11 -11 -11 -11 -11 -11 -11 -10 -10 -10 -11 -11 -11 -11 -11 -11 -12 -12 -12 -12 -12 -12 -13 -13 -13 -13 -13 -13
-18 -17 -15 -15 -14 -13 -12 -12 -11 -11 -11 -11 -11 -12 -13 -12 -12 -11 -11 -12 -12 -11 -11 -10 -10 -10 -11 -11 -11 -11 -11 -11 -11 -12 -12 -12 -12 -12 -13 -13 -13 -13 -13 -13
-18 -17 -16 -15 -14 -14 -13 -12 -12 -12 -11 -10 -11 -12 -12 -12 -12 -11 -11 -12 -13 -11 -11 -10 -10 -10 -11 -11 -11 -11 -11 -11 -11 -11 -12 -12 -12 -12 -13 -13 -14 -14 -13 -13
-19 -17 -16 -16 -15 -14 -13 -13 -12 -12 -11 -10 -11 -12 -11 -12 -12 -11 -11 -12 -13 -12 -11 -11 -10 -11 -11 -11 -11 -11 -11 -11 -11 -11 -12 -12 -12 -12 -13 -13 -14 -13 -13 -14
-19 -17 -16 -16 -15 -15 -13 -13 -13 -12 -11 -10 -11 -12 -11 -11 -10 -11 -11 -12 -12 -12 -11 -11 -10 -11 -11 -11 -11 -11 -11 -11 -11 -12 -12 -12 -12 -12 -12 -13 -13 -13 -14 -14
-19 -17 -17 -16 -15 -14 -14 -14 -14 -13 -11 -10 -11 -12 -11 -11 -10 -10 -11 -12 -12 -11 -11 -11 -11 -11 -11 -11 -11 -11 -12 -12 -12 -12 -12 -12 -12 -12 -13 -13 -13 -13 -13 -14
-19 -18 -17 -16 -15 -15 -15 -14 -13 -12 -11 -11 -11 -11 -11 -11 -11 -10 -11 -12 -12 -11 -11 -11 -11 -11 -11 -11 -11 -12 -12 -12 -12 -12 -12 -12 -13 -13 -13 -13 -13 -13 -13 -13
-19 -18 -18 -16 -15 -15 -14 -13 -13 -12 -11 -11 -11 -11 -11 -11 -11 -11 -11 -11 -11 -11 -11 -10 -11 -11 -11 -11 -11 -12 -12 -12 -12 -12 -12 -12 -13 -13 -13 -13 -13 -13 -13 -13
-19 -18 -17 -17 -15 -15 -15 -14 -14 -13 -12 -12 -11 -12 -11 -12 -11 -11 -11 -11 -11 -11 -10 -10 -10 -11 -11 -11 -11 -12 -12 -12 -12 -12 -12 -12 -13 -13 -13 -13 -13 -13 -13 -13
-19 -18 -17 -17 -16 -16 -16 -15 -15 -13 -13 -12 -12 -12 -12 -12 -12 -12 -11 -11 -11 -11 -10 -10 -10 -11 -11 -11 -11 -11 -12 -12 -12 -12 -12 -12 -12 -13 -13 -13 -13 -13 -13 -13
-19 -19 -18 -17 -16 -16 -16 -15 -15 -14 -13 -13 -12 -12 -12 -12 -12 -12 -12 -11 -11 -11 -11 -10 -10 -10 -10 -11 -11 -11 -11 -12 -12 -12 -12 -12 -12 -12 -13 -13 -13 -12 -13 -13

GFSCGP_500_temp_012.txt.gz
Temp
-11 -12 -10 -9 -10 -10 -11 -11 -11 -11 -11 -12 -12 -11 -10 -12 -12 -10 -11 -11 -11 -11 -11 -11 -11 -11 -12 -11 -11 -11 -12 -12 -13 -13 -13 -13 -13 -13 -13 -13 -12 -12 -12 -12
-12 -11 -8 -11 -11 -11 -11 -11 -11 -12 -12 -13 -13 -12 -11 -11 -11 -10 -11 -11 -11 -11 -11 -11 -11 -11 -11 -11 -11 -11 -12 -12 -13 -13 -13 -13 -14 -13 -12 -12 -12 -12 -12 -12
-12 -8 -12 -11 -11 -11 -11 -11 -11 -12 -13 -12 -12 -11 -11 -10 -10 -10 -10 -11 -11 -11 -11 -11 -11 -11 -11 -11 -11 -11 -12 -12 -12 -12 -13 -13 -13 -12 -12 -12 -12 -12 -12 -13
-12 -11 -11 -12 -10 -11 -11 -12 -12 -13 -13 -12 -14 -11 -10 -9 -10 -9 -10 -11 -11 -10 -10 -11 -11 -11 -11 -10 -11 -11 -11 -11 -12 -12 -13 -13 -12 -12 -12 -12 -12 -12 -13 -13
-10 -11 -11 -10 -9 -11 -10 -12 -12 -13 -12 -13 -13 -12 -9 -10 -10 -11 -11 -10 -10 -10 -10 -11 -11 -10 -10 -11 -11 -11 -11 -11 -11 -12 -12 -12 -12 -12 -12 -12 -12 -13 -13 -14
-12 -13 -12 -10 -11 -11 -12 -12 -13 -12 -12 -12 -11 -12 -10 -10 -11 -10 -10 -10 -10 -9 -10 -11 -11 -10 -10 -11 -11 -11 -11 -11 -12 -12 -12 -12 -12 -12 -12 -12 -12 -13 -13 -14
-15 -13 -12 -12 -12 -12 -12 -12 -12 -12 -12 -11 -11 -11 -10 -11 -11 -11 -11 -10 -10 -10 -10 -10 -10 -10 -11 -11 -10 -11 -11 -12 -12 -12 -11 -12 -12 -12 -12 -12 -13 -13 -13 -13
-17 -15 -12 -11 -11 -10 -10 -11 -11 -10 -11 -11 -11 -11 -12 -11 -11 -10 -10 -10 -10 -11 -11 -10 -10 -10 -11 -10 -10 -11 -11 -12 -12 -11 -11 -12 -12 -12 -12 -13 -13 -13 -13 -13
-20 -15 -14 -12 -12 -11 -10 -10 -11 -12 -12 -12 -13 -10 -12 -11 -11 -10 -11 -11 -11 -11 -11 -10 -11 -10 -10 -10 -10 -11 -11 -11 -11 -11 -12 -12 -12 -12 -12 -13 -13 -13 -13 -13
-19 -16 -16 -14 -13 -13 -11 -12 -12 -12 -12 -11 -11 -11 -12 -11 -11 -11 -11 -11 -11 -11 -11 -10 -10 -10 -10 -11 -11 -11 -11 -11 -11 -12 -12 -12 -12 -12 -12 -12 -12 -13 -13 -13
-20 -17 -18 -15 -14 -12 -12 -12 -12 -12 -12 -11 -11 -11 -12 -11 -12 -11 -12 -11 -11 -11 -10 -10 -10 -10 -10 -10 -11 -11 -11 -11 -11 -12 -12 -12 -12 -12 -12 -12 -12 -12 -13 -13
-20 -18 -17 -16 -13 -13 -13 -12 -11 -11 -10 -11 -11 -12 -12 -12 -12 -11 -11 -11 -11 -11 -11 -10 -10 -10 -10 -11 -11 -11 -11 -11 -12 -12 -12 -12 -12 -12 -12 -12 -12 -12 -13 -13
-20 -19 -17 -18 -17 -15 -13 -12 -12 -12 -12 -11 -11 -12 -12 -12 -12 -11 -11 -12 -11 -11 -10 -10 -10 -10 -10 -10 -11 -11 -11 -11 -12 -12 -12 -12 -12 -12 -11 -12 -12 -12 -13 -13
-20 -19 -18 -17 -16 -14 -13 -12 -12 -12 -12 -11 -11 -12 -12 -12 -13 -12 -12 -11 -11 -11 -10 -10 -10 -10 -10 -11 -11 -11 -11 -11 -12 -12 -12 -12 -12 -12 -12 -12 -12 -12 -13 -13
-20 -19 -18 -17 -16 -15 -14 -14 -13 -12 -12 -11 -11 -12 -12 -13 -13 -12 -12 -12 -12 -11 -10 -10 -10 -10 -10 -11 -11 -11 -11 -11 -12 -12 -12 -12 -12 -12 -12 -12 -12 -12 -12 -13
-19 -20 -18 -17 -16 -14 -14 -14 -14 -12 -12 -11 -11 -12 -13 -13 -13 -12 -12 -12 -12 -11 -11 -10 -10 -10 -10 -11 -11 -11 -11 -11 -12 -12 -12 -12 -12 -12 -13 -13 -13 -13 -13 -13
-20 -19 -19 -17 -17 -16 -15 -15 -14 -13 -12 -12 -11 -12 -12 -13 -13 -12 -12 -11 -10 -11 -11 -10 -10 -10 -10 -11 -11 -11 -11 -11 -11 -11 -11 -12 -12 -12 -12 -13 -13 -13 -13 -13
-20 -20 -19 -19 -18 -17 -17 -15 -14 -13 -12 -11 -11 -12 -13 -13 -13 -12 -11 -11 -10 -11 -12 -11 -11 -11 -11 -11 -11 -11 -11 -11 -11 -12 -12 -12 -12 -12 -12 -13 -13 -13 -13 -13
-20 -19 -19 -19 -19 -18 -16 -14 -14 -13 -12 -11 -12 -12 -13 -13 -12 -11 -11 -10 -9 -10 -11 -11 -11 -11 -11 -11 -11 -11 -11 -11 -12 -12 -12 -12 -12 -12 -12 -13 -13 -13 -13 -13
-20 -19 -18 -19 -18 -17 -16 -15 -14 -13 -11 -12 -11 -12 -13 -13 -12 -11 -11 -10 -10 -10 -11 -11 -11 -11 -11 -11 -11 -11 -11 -11 -12 -12 -12 -12 -12 -12 -12 -12 -13 -13 -13 -13
-20 -19 -18 -18 -18 -17 -16 -16 -15 -13 -11 -11 -12 -12 -13 -12 -11 -11 -10 -10 -10 -10 -11 -11 -11 -11 -11 -11 -11 -11 -11 -11 -12 -12 -12 -12 -12 -12 -12 -12 -12 -13 -13 -13
-20 -19 -19 -17 -17 -17 -16 -15 -14 -12 -12 -12 -12 -12 -12 -12 -12 -11 -11 -10 -10 -10 -11 -12 -12 -11 -11 -11 -11 -11 -11 -11 -12 -12 -12 -12 -12 -12 -12 -12 -12 -13 -13 -13
-20 -18 -18 -17 -16 -16 -15 -15 -15 -13 -12 -12 -12 -13 -12 -13 -12 -11 -11 -11 -10 -11 -11 -12 -12 -11 -11 -11 -11 -12 -11 -12 -12 -12 -12 -12 -13 -13 -12 -13 -12 -13 -13 -13
-19 -18 -18 -17 -17 -16 -15 -15 -15 -13 -13 -12 -12 -12 -12 -12 -12 -12 -11 -11 -10 -11 -11 -12 -12 -11 -11 -11 -11 -11 -12 -12 -12 -12 -12 -12 -12 -13 -12 -12 -13 -13 -13 -13
-19 -19 -18 -17 -16 -16 -16 -16 -15 -14 -13 -13 -12 -12 -12 -12 -12 -12 -11 -11 -11 -11 -11 -11 -12 -12 -11 -11 -11 -11 -12 -12 -12 -12 -12 -12 -12 -12 -13 -12 -12 -13 -13 -13
-19 -19 -18 -18 -17 -17 -16 -15 -15 -14 -13 -13 -12 -12 -12 -13 -12 -12 -12 -12 -11 -11 -11 -11 -12 -12 -11 -11 -11 -11 -11 -12 -12 -12 -12 -12 -12 -12 -12 -12 -12 -13 -13 -13

GFSCGP_500_temp_015.txt.gz
Temp
-11 -12 -10 -9 -10 -10 -10 -12 -11 -10 -11 -13 -12 -13 -12 -13 -11 -11 -11 -11 -10 -9 -10 -11 -10 -10 -10 -10 -11 -11 -11 -12 -12 -13 -13 -13 -13 -14 -13 -13 -12 -12 -12 -12
-12 -11 -8 -10 -10 -11 -11 -11 -10 -11 -11 -13 -13 -13 -13 -12 -11 -10 -9 -9 -10 -10 -10 -11 -10 -10 -10 -10 -11 -12 -12 -12 -12 -12 -13 -13 -13 -13 -13 -12 -12 -12 -12 -12
-12 -8 -11 -11 -11 -11 -10 -10 -10 -10 -11 -13 -13 -12 -10 -11 -10 -9 -9 -9 -10 -10 -10 -10 -10 -10 -10 -11 -11 -12 -11 -12 -12 -13 -13 -13 -13 -12 -12 -12 -12 -12 -12 -13
-12 -10 -10 -12 -11 -10 -10 -11 -10 -11 -11 -13 -13 -10 -10 -10 -9 -10 -10 -10 -10 -11 -10 -10 -10 -10 -11 -11 -11 -12 -11 -11 -12 -12 -12 -12 -12 -12 -12 -12 -12 -12 -13 -13
-9 -10 -10 -12 -9 -12 -8 -13 -12 -12 -11 -12 -11 -10 -9 -9 -10 -10 -10 -10 -10 -10 -10 -10 -10 -11 -11 -11 -11 -11 -11 -11 -11 -11 -12 -12 -12 -12 -12 -12 -12 -13 -13 -13
-11 -12 -12 -10 -11 -12 -12 -13 -12 -14 -12 -11 -11 -11 -8 -9 -11 -10 -10 -10 -10 -10 -10 -10 -11 -11 -12 -11 -11 -11 -11 -11 -11 -11 -11 -11 -12 -12 -12 -12 -12 -12 -13 -13
-12 -13 -12 -12 -13 -12 -12 -14 -14 -13 -11 -9 -11 -12 -8 -10 -11 -10 -10 -10 -10 -10 -10 -10 -11 -12 -11 -11 -11 -11 -11 -11 -11 -11 -11 -11 -12 -11 -12 -12 -12 -13 -12 -12
-17 -16 -13 -10 -10 -11 -12 -11 -9 -9 -11 -12 -12 -10 -9 -10 -11 -11 -10 -10 -10 -10 -10 -11 -12 -11 -11 -11 -11 -10 -10 -11 -11 -11 -11 -11 -11 -11 -12 -12 -12 -12 -12 -12
-21 -18 -15 -14 -12 -13 -11 -13 -9 -13 -13 -13 -12 -12 -12 -10 -11 -10 -10 -11 -11 -11 -11 -11 -11 -11 -11 -11 -10 -10 -10 -11 -11 -11 -11 -11 -11 -11 -12 -12 -12 -12 -12 -12
-20 -21 -17 -16 -14 -13 -15 -10 -14 -11 -13 -12 -12 -12 -12 -11 -11 -11 -11 -11 -11 -11 -11 -12 -11 -11 -11 -10 -10 -10 -11 -11 -11 -11 -11 -11 -11 -12 -11 -12 -12 -12 -12 -12
-21 -20 -18 -18 -17 -14 -13 -15 -12 -12 -13 -13 -12 -12 -12 -12 -12 -12 -12 -12 -11 -12 -12 -11 -11 -11 -10 -10 -10 -11 -11 -11 -11 -11 -11 -11 -11 -11 -11 -11 -12 -12 -12 -12
-22 -19 -18 -18 -18 -17 -15 -15 -12 -13 -12 -13 -12 -12 -11 -12 -11 -12 -11 -12 -12 -12 -12 -12 -11 -11 -10 -10 -11 -11 -11 -11 -11 -11 -11 -11 -11 -11 -11 -11 -12 -12 -12 -12
-21 -19 -17 -17 -18 -18 -16 -16 -15 -13 -14 -14 -12 -13 -12 -12 -11 -11 -12 -12 -12 -12 -12 -11 -11 -10 -10 -10 -11 -11 -11 -11 -11 -11 -11 -11 -12 -11 -11 -11 -12 -12 -12 -12
-21 -20 -17 -17 -17 -17 -16 -16 -15 -13 -14 -14 -12 -13 -12 -12 -12 -12 -12 -12 -12 -12 -12 -12 -11 -10 -10 -10 -11 -11 -11 -11 -11 -11 -11 -11 -12 -12 -12 -12 -12 -12 -12 -12
-21 -20 -18 -16 -17 -17 -16 -16 -15 -15 -14 -13 -13 -13 -13 -13 -12 -12 -12 -12 -12 -12 -12 -11 -10 -10 -10 -11 -11 -11 -11 -11 -11 -11 -11 -11 -12 -12 -12 -12 -12 -12 -12 -13
-21 -19 -19 -17 -17 -16 -16 -16 -15 -15 -15 -14 -13 -13 -13 -13 -13 -13 -12 -12 -12 -12 -12 -11 -10 -10 -10 -11 -11 -11 -11 -11 -11 -11 -11 -11 -12 -12 -12 -12 -12 -12 -12 -13
-20 -20 -19 -17 -17 -16 -16 -16 -16 -15 -14 -15 -13 -13 -13 -14 -14 -12 -12 -12 -12 -12 -11 -11 -10 -10 -10 -11 -11 -11 -11 -11 -11 -11 -11 -11 -11 -12 -12 -13 -12 -13 -13 -12
-20 -19 -19 -17 -17 -17 -16 -16 -16 -15 -15 -15 -14 -15 -14 -13 -12 -12 -13 -13 -12 -12 -11 -10 -10 -10 -11 -11 -11 -11 -11 -11 -11 -11 -11 -11 -11 -12 -13 -12 -12 -13 -13 -13
-20 -20 -18 -18 -17 -16 -16 -16 -16 -16 -15 -13 -13 -14 -12 -12 -12 -13 -13 -12 -12 -11 -10 -11 -10 -11 -11 -11 -11 -11 -11 -11 -11 -11 -11 -11 -12 -12 -13 -13 -13 -12 -13 -13
-20 -19 -19 -18 -17 -16 -16 -16 -15 -14 -13 -12 -12 -12 -12 -13 -13 -12 -12 -12 -12 -12 -10 -11 -11 -11 -11 -11 -11 -11 -11 -11 -11 -11 -11 -12 -12 -12 -12 -12 -12 -12 -13 -13
-20 -19 -20 -19 -17 -16 -15 -16 -16 -15 -13 -12 -12 -12 -12 -13 -13 -12 -12 -12 -12 -12 -11 -11 -10 -11 -11 -11 -11 -11 -11 -11 -11 -12 -12 -12 -12 -12 -12 -12 -12 -12 -13 -12
-20 -19 -19 -19 -17 -17 -16 -16 -15 -14 -13 -13 -12 -13 -12 -13 -13 -12 -12 -12 -12 -11 -12 -11 -11 -11 -11 -11 -11 -11 -11 -11 -11 -12 -12 -12 -12 -12 -12 -12 -12 -13 -13 -12
-20 -19 -18 -18 -18 -16 -16 -15 -14 -14 -13 -13 -13 -13 -13 -13 -13 -12 -13 -12 -12 -11 -12 -11 -11 -11 -11 -11 -11 -11 -11 -11 -12 -12 -12 -12 -12 -12 -12 -12 -12 -12 -12 -13
-20 -19 -19 -18 -18 -17 -16 -15 -15 -14 -14 -13 -13 -13 -13 -13 -13 -13 -13 -13 -12 -12 -12 -12 -12 -11 -11 -11 -11 -11 -11 -11 -12 -12 -12 -12 -12 -12 -12 -12 -12 -13 -12 -12
-20 -19 -19 -18 -18 -18 -17 -16 -15 -14 -14 -14 -14 -13 -13 -13 -13 -13 -13 -13 -12 -12 -12 -12 -12 -11 -11 -11 -11 -11 -12 -11 -12 -12 -12 -12 -12 -12 -12 -12 -12 -12 -13 -12
-19 -19 -19 -19 -18 -17 -17 -17 -15 -15 -14 -14 -14 -14 -13 -13 -13 -13 -13 -13 -12 -12 -11 -12 -12 -12 -11 -11 -11 -11 -11 -12 -11 -11 -12 -12 -12 -12 -12 -12 -12 -12 -12 -12

GFSCGP_500_temp_021.txt.gz
Temp
-11 -11 -10 -9 -10 -10 -11 -10 -10 -11 -12 -12 -11 -12 -11 -9 -11 -11 -10 -10 -10 -10 -11 -10 -10 -11 -12 -12 -10 -11 -10 -11 -11 -12 -11 -12 -12 -12 -12 -12 -12 -13 -14 -14
-11 -10 -10 -10 -11 -11 -11 -11 -10 -11 -12 -12 -11 -11 -12 -9 -9 -10 -10 -9 -10 -10 -10 -10 -10 -10 -10 -10 -10 -10 -11 -11 -11 -11 -12 -12 -12 -12 -12 -12 -13 -13 -13 -13
-11 -10 -10 -11 -11 -11 -11 -11 -10 -10 -12 -11 -11 -12 -11 -9 -9 -10 -9 -10 -10 -10 -10 -10 -10 -11 -10 -9 -10 -11 -11 -11 -12 -11 -12 -12 -12 -12 -12 -12 -12 -13 -12 -13
-12 -11 -10 -11 -11 -11 -10 -11 -11 -11 -12 -11 -12 -12 -9 -9 -9 -9 -9 -10 -10 -10 -9 -10 -10 -10 -10 -10 -11 -12 -12 -12 -11 -12 -12 -12 -12 -12 -12 -12 -12 -12 -12 -12
-11 -11 -12 -11 -10 -12 -9 -11 -12 -12 -13 -12 -12 -12 -7 -9 -9 -9 -9 -10 -9 -9 -9 -9 -9 -9 -10 -10 -11 -12 -12 -12 -12 -12 -12 -12 -11 -11 -12 -12 -12 -12 -12 -12
-13 -13 -14 -12 -11 -12 -11 -12 -13 -13 -13 -13 -9 -10 -6 -9 -9 -10 -10 -10 -9 -8 -9 -9 -9 -10 -10 -11 -11 -12 -12 -12 -12 -12 -12 -11 -11 -11 -11 -12 -12 -12 -12 -12
-16 -16 -14 -13 -12 -12 -12 -13 -13 -13 -14 -8 -10 -10 -7 -9 -10 -10 -9 -10 -9 -9 -9 -9 -10 -10 -11 -11 -12 -12 -12 -12 -12 -11 -11 -11 -11 -11 -11 -11 -12 -12 -12 -12
-20 -18 -15 -14 -13 -13 -12 -14 -13 -11 -10 -8 -10 -9 -8 -10 -11 -10 -9 -10 -9 -9 -10 -10 -10 -11 -11 -11 -11 -11 -12 -12 -11 -11 -11 -11 -11 -11 -11 -11 -12 -12 -12 -12
-22 -18 -18 -17 -15 -15 -13 -14 -10 -12 -12 -12 -10 -11 -10 -11 -11 -10 -10 -9 -9 -10 -10 -10 -11 -11 -11 -11 -11 -11 -11 -11 -11 -11 -11 -11 -11 -11 -11 -12 -12 -12 -12 -12
-23 -20 -20 -19 -16 -13 -15 -13 -15 -14 -13 -11 -9 -11 -11 -11 -11 -10 -10 -9 -10 -10 -10 -10 -10 -11 -11 -11 -11 -11 -11 -11 -11 -11 -11 -11 -11 -12 -12 -12 -11 -11 -12 -12
-23 -22 -20 -20 -18 -16 -15 -15 -15 -15 -14 -12 -10 -10 -11 -11 -12 -11 -10 -10 -10 -10 -10 -10 -11 -11 -11 -11 -11 -10 -10 -11 -11 -11 -11 -11 -11 -11 -11 -11 -11 -12 -12 -12
-23 -22 -20 -21 -20 -18 -16 -15 -16 -16 -14 -12 -12 -12 -12 -12 -12 -12 -11 -10 -10 -11 -11 -10 -11 -11 -11 -11 -10 -11 -11 -11 -11 -11 -11 -11 -12 -12 -12 -11 -11 -12 -12 -12
-23 -22 -21 -21 -20 -20 -18 -16 -16 -16 -16 -14 -12 -12 -12 -12 -12 -12 -11 -10 -10 -11 -11 -11 -11 -11 -10 -10 -10 -11 -11 -11 -11 -11 -11 -12 -12 -12 -12 -12 -11 -12 -12 -12
-22 -22 -22 -21 -20 -20 -19 -17 -17 -17 -15 -13 -12 -12 -13 -12 -13 -12 -10 -11 -11 -11 -12 -11 -11 -10 -10 -10 -10 -10 -11 -11 -11 -11 -11 -12 -12 -11 -11 -11 -12 -12 -12 -12
-23 -22 -22 -21 -20 -20 -19 -18 -17 -15 -13 -12 -12 -12 -12 -13 -12 -11 -10 -11 -12 -12 -11 -11 -10 -10 -10 -10 -10 -10 -11 -11 -11 -12 -12 -11 -11 -11 -11 -12 -12 -12 -12 -12
-23 -22 -22 -21 -20 -19 -19 -18 -17 -14 -11 -10 -13 -13 -13 -12 -12 -12 -11 -11 -12 -11 -11 -11 -11 -10 -10 -10 -10 -10 -10 -11 -11 -11 -11 -11 -11 -12 -12 -12 -12 -12 -12 -12
-23 -22 -22 -21 -20 -19 -19 -18 -17 -14 -12 -12 -13 -12 -12 -12 -12 -12 -11 -12 -12 -11 -11 -11 -10 -10 -10 -10 -10 -10 -11 -11 -11 -11 -11 -12 -12 -12 -13 -12 -12 -12 -12 -12
-22 -22 -21 -20 -19 -18 -18 -18 -17 -16 -15 -14 -14 -14 -12 -12 -12 -12 -11 -11 -11 -12 -12 -11 -10 -10 -10 -10 -10 -11 -11 -11 -11 -11 -12 -12 -12 -12 -12 -12 -12 -12 -12 -12
-22 -22 -21 -19 -18 -18 -17 -17 -16 -15 -15 -14 -15 -12 -11 -13 -13 -13 -12 -11 -11 -11 -11 -11 -11 -11 -11 -10 -10 -11 -11 -11 -11 -11 -12 -12 -12 -12 -12 -12 -12 -12 -12 -12
-21 -21 -20 -20 -18 -17 -16 -16 -16 -15 -14 -14 -13 -12 -13 -13 -13 -12 -11 -12 -12 -12 -12 -12 -11 -11 -11 -11 -11 -11 -11 -11 -11 -11 -12 -12 -12 -12 -12 -12 -12 -12 -12 -12
-20 -21 -21 -19 -18 -16 -16 -16 -15 -15 -14 -13 -13 -13 -13 -13 -13 -12 -12 -12 -12 -12 -12 -12 -11 -11 -11 -11 -11 -11 -11 -11 -11 -11 -11 -12 -12 -12 -12 -12 -12 -12 -12 -12
-20 -19 -19 -19 -17 -17 -15 -16 -15 -14 -14 -14 -14 -13 -13 -13 -13 -12 -12 -12 -12 -12 -12 -12 -12 -11 -11 -11 -11 -11 -11 -11 -12 -12 -12 -12 -12 -12 -12 -12 -12 -12 -12 -12
-21 -20 -19 -18 -18 -18 -15 -15 -15 -14 -15 -14 -14 -14 -14 -13 -13 -13 -12 -12 -12 -12 -12 -13 -12 -11 -12 -11 -11 -11 -11 -12 -12 -12 -12 -12 -12 -12 -13 -12 -13 -13 -13 -12
-20 -20 -19 -19 -18 -18 -16 -15 -15 -15 -14 -14 -14 -14 -13 -14 -13 -12 -12 -12 -12 -12 -12 -12 -12 -12 -12 -12 -11 -11 -11 -12 -12 -12 -12 -12 -12 -12 -13 -13 -13 -13 -13 -13
-20 -20 -20 -20 -19 -19 -19 -16 -15 -14 -14 -15 -15 -14 -13 -13 -13 -13 -13 -12 -13 -13 -12 -13 -13 -12 -12 -12 -12 -12 -11 -12 -12 -12 -12 -12 -12 -12 -13 -13 -12 -12 -13 -13
-20 -20 -20 -19 -19 -20 -19 -17 -16 -15 -15 -15 -15 -13 -13 -13 -13 -12 -13 -13 -13 -13 -13 -12 -13 -13 -13 -12 -12 -12 -12 -12 -12 -12 -12 -12 -12 -12 -12 -12 -12 -12 -12 -12

GFSCGP_500_temp_024.txt.gz
Temp
-11 -12 -11 -10 -11 -11 -11 -11 -10 -10 -11 -12 -10 -9 -9 -10 -10 -10 -10 -9 -9 -9 -9 -9 -10 -10 -10 -11 -11 -11 -12 -12 -12 -12 -12 -12 -12 -12 -11 -11 -12 -12 -13 -13
-11 -11 -11 -11 -11 -11 -11 -11 -10 -11 -11 -11 -11 -10 -10 -10 -9 -10 -9 -9 -9 -8 -9 -10 -10 -10 -11 -12 -11 -10 -11 -11 -11 -12 -12 -13 -12 -12 -11 -11 -11 -12 -13 -13
-12 -11 -11 -11 -11 -11 -11 -11 -11 -11 -11 -11 -12 -10 -11 -9 -9 -10 -9 -9 -8 -8 -10 -9 -10 -10 -11 -11 -11 -11 -11 -11 -11 -12 -13 -12 -12 -12 -13 -13 -12 -12 -13 -13
-12 -12 -12 -11 -11 -11 -11 -11 -11 -11 -12 -11 -13 -10 -10 -9 -9 -9 -9 -9 -9 -10 -9 -9 -10 -10 -11 -11 -11 -11 -12 -11 -11 -12 -12 -12 -12 -13 -13 -13 -13 -13 -13 -12
-13 -13 -13 -12 -12 -12 -10 -11 -11 -12 -12 -12 -11 -11 -6 -9 -8 -9 -9 -9 -10 -9 -9 -9 -10 -10 -11 -11 -11 -11 -12 -11 -12 -12 -12 -12 -12 -13 -13 -12 -12 -12 -12 -12
-16 -17 -16 -14 -13 -12 -11 -12 -12 -12 -12 -11 -10 -10 -7 -8 -9 -9 -9 -9 -9 -9 -9 -9 -10 -10 -11 -11 -11 -11 -12 -11 -12 -12 -11 -12 -12 -12 -12 -12 -12 -12 -12 -12
-20 -20 -17 -15 -14 -13 -12 -12 -12 -12 -12 -9 -10 -10 -7 -9 -10 -10 -9 -9 -9 -8 -9 -10 -10 -10 -10 -11 -11 -11 -12 -12 -12 -11 -11 -12 -11 -11 -12 -12 -12 -12 -12 -12
-22 -20 -18 -16 -15 -14 -13 -14 -12 -10 -11 -9 -11 -8 -7 -9 -11 -10 -9 -9 -8 -9 -10 -9 -10 -10 -10 -11 -11 -11 -11 -11 -11 -11 -11 -11 -11 -12 -12 -12 -12 -12 -12 -12
-22 -21 -19 -18 -17 -15 -14 -13 -12 -12 -12 -10 -10 -9 -8 -9 -10 -11 -10 -9 -9 -9 -9 -10 -10 -11 -11 -11 -11 -11 -11 -11 -11 -11 -11 -11 -12 -12 -11 -11 -12 -12 -12 -12
-22 -21 -21 -21 -19 -16 -15 -15 -16 -13 -13 -10 -9 -9 -8 -10 -10 -11 -10 -9 -10 -9 -10 -10 -10 -11 -11 -11 -11 -11 -11 -11 -11 -11 -11 -11 -11 -11 -11 -12 -12 -12 -12 -12
-23 -23 -21 -21 -20 -18 -16 -17 -16 -16 -14 -11 -9 -9 -10 -11 -11 -11 -10 -10 -10 -9 -10 -10 -10 -11 -11 -11 -11 -10 -10 -10 -11 -11 -11 -11 -11 -11 -12 -12 -12 -12 -12 -12
-23 -22 -22 -22 -21 -20 -19 -18 -17 -15 -12 -11 -9 -8 -11 -12 -11 -11 -10 -10 -10 -10 -11 -10 -11 -11 -11 -11 -10 -10 -10 -11 -11 -11 -11 -11 -11 -12 -12 -12 -12 -11 -12 -12
-23 -22 -22 -22 -22 -21 -19 -18 -18 -15 -14 -11 -10 -10 -12 -12 -12 -12 -11 -11 -11 -11 -11 -11 -11 -11 -11 -11 -10 -10 -10 -11 -11 -11 -11 -11 -12 -12 -12 -12 -12 -12 -12 -12
-23 -23 -22 -22 -22 -21 -21 -19 -18 -16 -13 -11 -10 -11 -12 -12 -11 -12 -11 -11 -11 -12 -12 -12 -11 -11 -11 -11 -10 -10 -10 -11 -10 -11 -11 -12 -12 -11 -11 -11 -12 -12 -12 -12
-23 -23 -22 -22 -22 -21 -20 -19 -18 -16 -13 -11 -11 -13 -13 -13 -11 -11 -11 -11 -11 -12 -12 -12 -12 -11 -11 -10 -10 -10 -10 -10 -10 -11 -11 -11 -11 -11 -12 -12 -12 -12 -12 -12
-23 -22 -22 -22 -22 -21 -20 -20 -19 -16 -14 -11 -12 -12 -14 -13 -12 -10 -11 -11 -11 -12 -12 -12 -11 -11 -11 -10 -10 -10 -11 -10 -11 -11 -11 -11 -11 -11 -12 -12 -12 -12 -12 -12
-23 -22 -22 -22 -22 -21 -21 -20 -19 -18 -16 -13 -12 -13 -14 -13 -12 -11 -13 -11 -12 -12 -12 -12 -11 -11 -11 -10 -10 -10 -11 -10 -11 -11 -11 -11 -11 -12 -12 -12 -12 -12 -12 -12
-22 -22 -22 -21 -21 -21 -20 -20 -19 -18 -17 -15 -14 -14 -13 -12 -12 -12 -12 -12 -13 -13 -12 -12 -11 -11 -10 -10 -10 -11 -11 -11 -11 -11 -11 -11 -12 -12 -12 -12 -12 -12 -12 -12
-22 -22 -21 -21 -21 -20 -19 -20 -19 -18 -17 -15 -14 -14 -13 -12 -12 -11 -12 -12 -12 -13 -12 -11 -11 -11 -11 -11 -11 -11 -11 -11 -11 -11 -11 -11 -11 -12 -12 -12 -12 -12 -13 -12
-21 -21 -21 -20 -20 -19 -19 -18 -18 -17 -17 -15 -14 -13 -12 -13 -12 -12 -12 -12 -12 -12 -12 -12 -11 -11 -11 -11 -11 -11 -11 -11 -11 -11 -11 -11 -11 -11 -12 -12 -12 -12 -12 -12
-21 -21 -20 -20 -19 -19 -17 -17 -18 -17 -16 -15 -14 -13 -12 -11 -12 -12 -12 -13 -13 -13 -13 -12 -12 -11 -11 -11 -11 -11 -11 -11 -11 -12 -12 -11 -12 -12 -12 -12 -12 -12 -12 -12
-20 -20 -19 -19 -18 -18 -17 -17 -18 -16 -16 -15 -14 -14 -12 -12 -12 -12 -12 -13 -13 -13 -13 -12 -12 -11 -11 -11 -11 -11 -11 -11 -11 -12 -12 -12 -12 -12 -12 -12 -12 -12 -12 -12
-20 -20 -19 -19 -18 -18 -16 -17 -17 -16 -15 -13 -14 -13 -12 -12 -13 -13 -13 -12 -13 -13 -13 -12 -12 -11 -11 -11 -11 -11 -11 -12 -12 -12 -12 -12 -12 -12 -12 -13 -12 -12 -12 -12
-20 -19 -19 -19 -18 -17 -16 -17 -16 -14 -14 -13 -13 -14 -13 -14 -13 -12 -13 -13 -12 -13 -13 -13 -12 -12 -12 -12 -11 -12 -12 -12 -12 -12 -12 -12 -12 -12 -12 -13 -13 -13 -12 -12
-19 -19 -20 -19 -18 -18 -17 -15 -15 -14 -15 -14 -13 -14 -13 -13 -13 -13 -12 -13 -13 -13 -13 -13 -13 -12 -12 -12 -12 -12 -12 -12 -12 -12 -12 -12 -12 -12 -12 -13 -13 -13 -13 -12
-20 -20 -19 -19 -19 -18 -17 -18 -15 -15 -14 -14 -14 -14 -14 -13 -13 -13 -13 -13 -13 -13 -13 -13 -12 -12 -12 -12 -12 -12 -12 -12 -12 -12 -12 -12 -12 -12 -12 -13 -13 -13 -13 -13

GFSCGP_500_temp_027.txt.gz
Temp
-12 -12 -11 -11 -11 -11 -11 -11 -11 -11 -11 -12 -11 -10 -9 -10 -10 -9 -9 -9 -9 -9 -9 -9 -9 -9 -9 -10 -10 -10 -11 -10 -11 -12 -12 -12 -13 -13 -13 -13 -13 -14 -13 -12
-12 -11 -11 -11 -11 -11 -11 -11 -11 -12 -12 -12 -11 -9 -9 -9 -9 -9 -8 -8 -8 -9 -9 -9 -10 -10 -10 -9 -10 -10 -11 -11 -11 -11 -12 -12 -12 -12 -12 -13 -13 -13 -13 -13
-13 -12 -12 -12 -12 -11 -11 -11 -11 -11 -12 -11 -11 -10 -9 -9 -9 -9 -9 -8 -9 -9 -9 -10 -10 -10 -9 -8 -9 -10 -12 -11 -12 -11 -11 -11 -11 -12 -13 -13 -13 -13 -13 -13
-16 -13 -12 -13 -12 -12 -11 -11 -11 -12 -12 -11 -12 -9 -10 -9 -9 -8 -8 -9 -9 -9 -10 -10 -10 -9 -8 -9 -9 -10 -11 -12 -12 -11 -11 -11 -12 -12 -13 -12 -12 -13 -13 -12
-17 -16 -14 -13 -14 -13 -11 -11 -11 -12 -12 -11 -11 -11 -7 -9 -8 -9 -9 -9 -10 -10 -10 -9 -8 -8 -9 -9 -10 -11 -12 -12 -12 -12 -12 -12 -12 -12 -12 -12 -11 -12 -12 -12
-19 -20 -19 -16 -16 -14 -13 -13 -13 -12 -12 -11 -10 -11 -7 -8 -9 -9 -10 -10 -10 -10 -9 -8 -8 -9 -10 -10 -11 -11 -11 -11 -12 -12 -12 -12 -12 -12 -12 -12 -12 -12 -12 -12
-22 -21 -20 -19 -17 -16 -14 -13 -13 -13 -13 -10 -10 -10 -7 -9 -9 -9 -10 -10 -10 -9 -8 -8 -9 -10 -10 -10 -10 -10 -11 -11 -11 -12 -12 -12 -12 -12 -12 -12 -12 -12 -12 -12
-23 -22 -21 -20 -18 -16 -15 -14 -12 -12 -11 -10 -10 -9 -8 -9 -9 -10 -10 -10 -9 -8 -9 -9 -9 -9 -10 -10 -10 -10 -11 -11 -11 -12 -12 -11 -11 -12 -12 -12 -12 -12 -12 -12
-22 -22 -23 -22 -20 -18 -16 -15 -14 -14 -12 -10 -9 -9 -8 -8 -10 -10 -10 -9 -9 -9 -10 -9 -9 -9 -10 -10 -10 -10 -11 -11 -11 -11 -11 -11 -12 -12 -12 -12 -12 -12 -12 -12
-23 -22 -23 -23 -22 -19 -18 -17 -16 -14 -13 -11 -9 -9 -8 -9 -11 -11 -10 -10 -10 -10 -10 -9 -9 -9 -10 -11 -11 -11 -11 -11 -11 -11 -11 -11 -11 -11 -12 -12 -12 -12 -12 -11
-23 -22 -22 -23 -22 -21 -20 -18 -17 -15 -13 -10 -10 -8 -8 -8 -11 -11 -11 -10 -9 -10 -10 -10 -10 -10 -10 -11 -11 -11 -11 -11 -11 -11 -11 -11 -11 -11 -11 -12 -12 -12 -11 -11
-23 -23 -22 -22 -22 -22 -22 -20 -18 -15 -12 -11 -10 -8 -8 -9 -11 -12 -11 -10 -9 -10 -10 -10 -10 -10 -11 -11 -11 -11 -11 -11 -11 -11 -11 -11 -11 -11 -11 -11 -12 -12 -11 -11
-23 -23 -22 -22 -22 -22 -22 -20 -18 -14 -12 -11 -10 -8 -11 -11 -13 -12 -11 -11 -11 -10 -10 -10 -11 -10 -11 -11 -11 -10 -11 -11 -11 -11 -11 -11 -11 -12 -11 -12 -12 -12 -11 -12
-23 -23 -23 -23 -22 -22 -22 -20 -18 -16 -12 -11 -10 -9 -11 -12 -12 -12 -11 -11 -11 -12 -11 -12 -11 -11 -11 -11 -11 -10 -11 -11 -11 -11 -11 -12 -12 -11 -11 -12 -12 -12 -11 -12
-23 -23 -23 -23 -22 -23 -22 -21 -19 -15 -12 -11 -10 -10 -12 -13 -13 -12 -11 -11 -12 -12 -12 -12 -12 -11 -11 -11 -10 -10 -11 -11 -11 -11 -11 -11 -11 -11 -11 -12 -12 -12 -12 -12
-23 -23 -23 -23 -22 -22 -22 -21 -19 -16 -13 -11 -10 -12 -13 -13 -13 -12 -11 -10 -11 -12 -13 -12 -12 -12 -11 -11 -10 -11 -10 -11 -11 -11 -11 -11 -11 -11 -12 -12 -12 -12 -12 -12
-23 -22 -22 -22 -23 -22 -22 -21 -20 -16 -14 -11 -10 -13 -13 -13 -13 -12 -12 -11 -11 -12 -13 -12 -12 -12 -11 -11 -10 -11 -11 -11 -10 -10 -11 -11 -11 -11 -11 -12 -12 -12 -12 -12
-23 -22 -22 -22 -22 -21 -21 -21 -20 -17 -15 -12 -11 -13 -13 -13 -12 -13 -12 -11 -12 -13 -13 -12 -12 -12 -11 -11 -11 -11 -11 -11 -11 -11 -11 -11 -11 -11 -11 -12 -12 -12 -12 -12
-22 -22 -22 -22 -21 -21 -21 -21 -19 -18 -16 -14 -12 -13 -13 -13 -12 -12 -11 -12 -12 -13 -13 -13 -12 -12 -11 -11 -11 -11 -11 -11 -11 -11 -11 -11 -11 -11 -12 -12 -12 -12 -12 -12
-21 -22 -22 -21 -21 -21 -21 -20 -19 -19 -17 -15 -13 -14 -13 -13 -12 -11 -11 -12 -12 -12 -12 -13 -13 -12 -11 -11 -11 -11 -11 -11 -11 -11 -11 -11 -11 -12 -12 -12 -12 -12 -12 -12
-21 -21 -21 -21 -20 -20 -20 -20 -19 -18 -17 -15 -14 -14 -13 -13 -12 -12 -11 -10 -12 -13 -13 -13 -13 -12 -11 -11 -11 -11 -11 -11 -11 -12 -12 -12 -12 -11 -12 -12 -12 -12 -12 -12
-21 -21 -20 -20 -19 -19 -18 -19 -18 -18 -17 -15 -15 -13 -13 -13 -12 -12 -12 -12 -12 -13 -13 -13 -12 -12 -12 -11 -11 -11 -11 -11 -12 -12 -12 -12 -12 -12 -12 -12 -12 -12 -12 -12
-20 -20 -20 -19 -19 -19 -18 -18 -17 -18 -15 -16 -15 -13 -13 -13 -12 -12 -12 -12 -13 -14 -13 -13 -13 -12 -12 -11 -11 -11 -11 -12 -12 -12 -12 -12 -12 -12 -13 -13 -13 -12 -12 -12
-20 -19 -19 -19 -19 -19 -18 -18 -17 -17 -15 -15 -14 -14 -13 -13 -13 -12 -12 -12 -13 -13 -13 -13 -13 -12 -12 -11 -11 -11 -11 -12 -12 -13 -13 -12 -12 -13 -13 -13 -13 -12 -12 -12
-20 -19 -19 -19 -19 -19 -17 -17 -18 -16 -15 -15 -14 -14 -13 -13 -12 -13 -13 -12 -12 -13 -13 -14 -13 -12 -12 -12 -12 -12 -11 -12 -12 -13 -13 -12 -12 -12 -13 -13 -13 -12 -12 -12
-20 -19 -19 -19 -19 -18 -18 -18 -18 -18 -15 -14 -15 -14 -13 -13 -12 -12 -13 -13 -13 -13 -14 -13 -13 -12 -12 -12 -12 -12 -12 -12 -12 -13 -13 -12 -12 -12 -12 -13 -13 -12 -12 -12

GFSCGP_500_temp_030.txt.gz
Temp
-12 -12 -11 -11 -12 -12 -12 -11 -11 -11 -11 -12 -12 -11 -11 -10 -10 -9 -9 -9 -9 -8 -8 -8 -9 -9 -9 -9 -9 -10 -10 -10 -10 -11 -11 -11 -11 -12 -12 -13 -13 -13 -13 -13
-13 -12 -11 -12 -12 -12 -12 -12 -12 -12 -12 -11 -11 -11 -10 -10 -9 -9 -9 -9 -9 -8 -8 -9 -9 -9 -9 -9 -10 -10 -10 -10 -11 -10 -10 -11 -11 -11 -12 -13 -13 -13 -13 -13
-17 -15 -14 -13 -13 -12 -12 -12 -12 -12 -12 -12 -11 -10 -10 -9 -9 -9 -9 -9 -8 -8 -8 -9 -9 -9 -9 -10 -10 -10 -10 -10 -10 -10 -10 -11 -11 -12 -11 -12 -13 -13 -13 -13
-22 -20 -17 -17 -14 -14 -13 -12 -12 -12 -12 -11 -12 -10 -9 -9 -9 -9 -9 -9 -9 -9 -9 -9 -9 -9 -9 -10 -10 -9 -9 -10 -10 -10 -11 -11 -12 -11 -12 -12 -13 -13 -13 -13
-23 -22 -21 -20 -17 -16 -13 -13 -12 -12 -12 -12 -11 -11 -8 -10 -9 -8 -9 -9 -9 -10 -10 -9 -10 -10 -10 -9 -9 -9 -9 -9 -10 -10 -11 -11 -12 -12 -12 -13 -13 -13 -13 -12
-23 -23 -23 -22 -20 -19 -16 -15 -14 -13 -13 -12 -11 -11 -9 -9 -9 -9 -9 -10 -10 -10 -10 -10 -10 -9 -9 -9 -9 -9 -9 -9 -10 -10 -11 -11 -12 -12 -13 -12 -12 -12 -12 -12
-23 -23 -23 -23 -22 -20 -18 -16 -15 -15 -14 -11 -11 -11 -9 -9 -9 -10 -10 -10 -10 -10 -10 -10 -9 -9 -9 -10 -9 -9 -9 -10 -10 -10 -11 -12 -12 -12 -12 -12 -12 -12 -12 -12
-22 -23 -24 -23 -23 -20 -19 -17 -15 -15 -13 -11 -11 -10 -9 -9 -9 -10 -10 -10 -10 -10 -9 -9 -9 -10 -9 -9 -9 -9 -10 -10 -10 -11 -11 -12 -12 -12 -12 -12 -11 -11 -12 -12
-22 -23 -23 -23 -22 -22 -20 -19 -17 -16 -13 -12 -11 -10 -9 -9 -10 -10 -12 -11 -10 -9 -9 -10 -10 -9 -9 -9 -10 -10 -10 -10 -11 -11 -11 -11 -12 -11 -11 -11 -12 -12 -11 -11
-23 -23 -22 -22 -22 -22 -21 -20 -19 -16 -14 -12 -11 -10 -9 -9 -11 -10 -11 -10 -9 -9 -9 -9 -9 -9 -9 -10 -10 -10 -11 -11 -11 -11 -11 -11 -11 -11 -11 -11 -11 -11 -12 -11
-23 -23 -23 -23 -23 -22 -22 -20 -20 -17 -14 -11 -11 -10 -10 -10 -11 -11 -11 -10 -10 -10 -9 -9 -9 -10 -10 -10 -10 -11 -11 -11 -11 -11 -11 -11 -11 -11 -11 -11 -12 -12 -12 -11
-24 -23 -23 -23 -23 -23 -23 -22 -20 -17 -14 -12 -11 -11 -10 -10 -10 -12 -11 -10 -11 -10 -10 -10 -10 -10 -10 -10 -10 -11 -11 -11 -11 -11 -11 -11 -11 -11 -11 -12 -12 -12 -12 -12
-24 -23 -23 -23 -23 -23 -22 -22 -21 -17 -15 -12 -11 -11 -12 -10 -10 -11 -12 -11 -11 -10 -10 -10 -10 -10 -10 -10 -11 -11 -11 -11 -11 -11 -11 -11 -11 -12 -12 -12 -12 -12 -12 -12
-24 -23 -23 -23 -23 -23 -22 -21 -21 -18 -14 -12 -11 -10 -13 -12 -11 -11 -11 -12 -11 -11 -10 -10 -11 -11 -11 -11 -11 -11 -11 -11 -10 -11 -11 -11 -11 -11 -11 -11 -11 -12 -12 -12
-24 -23 -23 -23 -23 -23 -23 -22 -20 -18 -14 -12 -11 -11 -13 -12 -12 -12 -12 -12 -12 -11 -10 -10 -11 -11 -11 -11 -11 -11 -11 -10 -11 -11 -11 -11 -11 -11 -11 -11 -12 -12 -12 -12
-24 -23 -23 -23 -23 -23 -22 -22 -20 -18 -15 -12 -11 -11 -13 -13 -13 -13 -12 -12 -12 -10 -10 -11 -11 -12 -11 -11 -11 -11 -10 -11 -11 -11 -11 -11 -11 -11 -12 -12 -12 -12 -12 -12
-23 -23 -23 -23 -23 -22 -21 -22 -21 -19 -16 -13 -11 -12 -13 -14 -13 -13 -12 -12 -12 -10 -10 -12 -12 -12 -12 -11 -11 -11 -11 -11 -11 -11 -11 -11 -11 -12 -12 -12 -12 -12 -12 -12
-23 -23 -22 -22 -23 -22 -22 -22 -20 -18 -16 -15 -13 -13 -14 -14 -13 -13 -13 -13 -12 -11 -10 -12 -12 -12 -12 -11 -11 -11 -11 -11 -11 -11 -11 -11 -11 -11 -11 -11 -12 -12 -12 -12
-22 -22 -22 -22 -22 -22 -22 -21 -20 -18 -16 -14 -12 -14 -14 -14 -14 -13 -12 -13 -12 -11 -12 -12 -13 -12 -12 -11 -11 -11 -11 -11 -11 -11 -11 -11 -11 -11 -11 -12 -12 -12 -12 -12
-22 -22 -21 -22 -21 -21 -21 -21 -21 -19 -17 -15 -13 -14 -14 -13 -13 -13 -13 -13 -12 -12 -11 -12 -13 -12 -12 -11 -11 -11 -11 -11 -11 -11 -11 -11 -11 -11 -12 -12 -12 -12 -12 -12
-21 -21 -21 -21 -21 -21 -20 -20 -20 -18 -16 -15 -13 -14 -14 -13 -13 -13 -13 -13 -12 -12 -12 -12 -13 -13 -12 -11 -11 -11 -11 -11 -11 -11 -11 -11 -12 -12 -12 -12 -12 -12 -12 -12
-21 -21 -21 -20 -20 -20 -20 -19 -19 -19 -17 -16 -13 -15 -13 -13 -13 -13 -13 -12 -12 -12 -12 -13 -13 -13 -12 -11 -11 -11 -12 -12 -12 -12 -12 -12 -12 -12 -12 -12 -12 -12 -12 -12
-20 -20 -20 -20 -20 -20 -19 -19 -18 -18 -17 -17 -15 -14 -14 -13 -14 -13 -13 -12 -12 -12 -13 -13 -14 -13 -12 -12 -11 -12 -12 -12 -12 -12 -12 -13 -13 -13 -13 -12 -12 -12 -12 -12
-20 -20 -20 -20 -19 -19 -19 -19 -18 -18 -17 -17 -14 -14 -14 -14 -13 -13 -13 -12 -13 -12 -13 -13 -13 -13 -12 -12 -12 -12 -12 -12 -12 -12 -13 -13 -13 -14 -14 -13 -12 -12 -12 -12
-20 -20 -19 -19 -19 -19 -19 -18 -19 -18 -16 -15 -14 -14 -14 -14 -13 -13 -12 -12 -13 -13 -13 -14 -13 -13 -12 -12 -12 -12 -12 -12 -12 -12 -13 -13 -13 -14 -14 -13 -12 -13 -12 -12
-19 -19 -20 -19 -19 -19 -18 -19 -18 -16 -15 -16 -15 -14 -14 -13 -13 -13 -13 -13 -13 -13 -13 -13 -13 -13 -13 -12 -12 -12 -12 -12 -12 -12 -13 -13 -13 -13 -14 -13 -13 -13 -13 -12

GFSCGP_500_temp_033.txt.gz
Temp
-12 -12 -12 -12 -12 -12 -12 -12 -11 -12 -12 -12 -11 -10 -10 -11 -11 -10 -9 -9 -9 -9 -9 -9 -9 -9 -9 -9 -9 -9 -9 -10 -10 -10 -10 -10 -10 -10 -11 -11 -12 -12 -12 -12
-13 -12 -12 -12 -12 -13 -12 -12 -12 -12 -12 -12 -11 -11 -10 -10 -10 -10 -10 -10 -9 -9 -9 -9 -9 -8 -8 -9 -9 -9 -10 -10 -10 -10 -10 -10 -10 -11 -11 -12 -12 -11 -12 -13
-20 -16 -17 -15 -13 -13 -13 -12 -12 -12 -12 -12 -12 -11 -11 -10 -10 -10 -9 -9 -10 -9 -9 -9 -9 -9 -8 -8 -9 -9 -9 -10 -10 -10 -10 -10 -11 -11 -11 -12 -11 -11 -12 -12
-22 -21 -21 -20 -18 -16 -16 -15 -13 -13 -13 -12 -12 -11 -11 -10 -9 -9 -9 -10 -9 -9 -8 -9 -9 -8 -8 -8 -8 -8 -9 -9 -9 -10 -10 -11 -11 -11 -11 -11 -12 -12 -12 -12
-22 -22 -23 -23 -23 -21 -19 -18 -16 -15 -14 -13 -12 -12 -9 -10 -9 -9 -10 -10 -10 -9 -9 -8 -8 -8 -8 -8 -8 -9 -9 -9 -9 -10 -10 -10 -11 -11 -11 -12 -12 -12 -12 -12
-22 -22 -23 -24 -24 -24 -23 -21 -19 -17 -15 -13 -12 -12 -10 -10 -10 -10 -10 -10 -9 -9 -9 -9 -9 -9 -9 -8 -9 -9 -9 -10 -10 -10 -10 -10 -10 -11 -11 -12 -12 -13 -12 -12
-22 -22 -23 -23 -24 -24 -24 -23 -21 -20 -17 -12 -12 -13 -10 -10 -10 -10 -10 -10 -10 -9 -9 -9 -9 -9 -9 -9 -10 -10 -10 -10 -10 -10 -10 -10 -11 -11 -12 -12 -12 -12 -12 -12
-22 -22 -22 -23 -23 -24 -23 -23 -23 -20 -18 -12 -14 -12 -11 -10 -11 -10 -10 -10 -10 -9 -10 -9 -9 -9 -9 -9 -10 -9 -10 -10 -10 -10 -10 -11 -11 -11 -11 -11 -12 -12 -12 -12
-23 -23 -23 -23 -24 -24 -23 -23 -22 -22 -18 -15 -13 -11 -11 -10 -12 -11 -11 -10 -10 -10 -10 -9 -9 -9 -10 -9 -9 -10 -9 -9 -10 -10 -11 -11 -11 -11 -11 -11 -11 -12 -12 -12
-23 -23 -23 -23 -23 -23 -23 -23 -23 -22 -19 -16 -13 -12 -11 -11 -12 -11 -11 -11 -11 -10 -9 -10 -10 -10 -9 -10 -10 -10 -10 -10 -11 -11 -11 -11 -11 -11 -11 -11 -11 -11 -12 -12
-24 -23 -23 -23 -23 -22 -22 -22 -23 -23 -19 -17 -14 -12 -12 -11 -11 -11 -11 -10 -11 -10 -10 -10 -10 -10 -10 -10 -10 -10 -10 -10 -11 -11 -11 -11 -11 -11 -11 -11 -11 -12 -12 -11
-24 -23 -23 -23 -23 -23 -22 -22 -22 -22 -20 -17 -14 -13 -12 -12 -11 -12 -11 -10 -11 -11 -10 -10 -10 -10 -10 -10 -10 -11 -10 -11 -11 -11 -11 -11 -11 -11 -11 -11 -11 -12 -11 -11
-24 -24 -23 -23 -23 -23 -22 -22 -22 -22 -20 -17 -16 -14 -13 -12 -12 -12 -11 -11 -11 -11 -10 -10 -10 -10 -10 -11 -11 -11 -11 -11 -10 -11 -11 -11 -11 -11 -12 -12 -12 -12 -11 -12
-24 -24 -24 -23 -23 -23 -23 -22 -22 -22 -20 -18 -15 -15 -15 -13 -11 -12 -12 -11 -11 -11 -11 -11 -11 -11 -11 -11 -11 -11 -11 -11 -11 -11 -11 -11 -11 -11 -11 -12 -12 -11 -11 -12
-24 -24 -24 -23 -23 -23 -22 -22 -22 -22 -21 -18 -17 -15 -14 -13 -12 -12 -12 -12 -11 -11 -11 -11 -11 -11 -11 -11 -11 -11 -11 -11 -11 -11 -11 -11 -11 -11 -11 -11 -11 -12 -12 -12
-24 -24 -24 -23 -23 -23 -22 -22 -22 -21 -20 -18 -16 -15 -15 -14 -13 -12 -12 -12 -12 -11 -11 -11 -12 -12 -12 -11 -11 -11 -11 -11 -11 -11 -10 -11 -11 -11 -11 -11 -12 -12 -12 -12
-23 -24 -23 -23 -23 -23 -23 -23 -23 -22 -20 -18 -15 -14 -16 -15 -15 -13 -12 -12 -12 -11 -11 -11 -12 -12 -12 -12 -11 -11 -11 -11 -11 -11 -11 -11 -11 -11 -11 -11 -12 -12 -12 -12
-22 -22 -22 -22 -23 -22 -22 -22 -22 -22 -20 -18 -16 -14 -15 -14 -14 -13 -13 -13 -12 -11 -11 -12 -11 -12 -12 -12 -11 -11 -11 -11 -11 -11 -11 -11 -11 -11 -11 -12 -12 -12 -12 -12
-22 -22 -22 -22 -22 -22 -22 -22 -21 -21 -20 -18 -16 -15 -15 -14 -14 -13 -13 -13 -12 -12 -12 -12 -11 -11 -11 -11 -11 -11 -11 -11 -11 -11 -11 -11 -11 -11 -11 -11 -12 -12 -12 -12
-22 -22 -22 -22 -22 -21 -21 -21 -21 -21 -19 -18 -17 -15 -15 -13 -13 -13 -13 -13 -12 -12 -12 -12 -12 -11 -11 -11 -11 -11 -11 -11 -11 -11 -11 -11 -11 -11 -11 -12 -12 -12 -12 -12
-21 -21 -21 -22 -21 -21 -20 -21 -21 -20 -19 -18 -16 -14 -14 -13 -13 -13 -13 -13 -12 -13 -12 -12 -12 -11 -11 -11 -11 -11 -11 -11 -11 -11 -11 -11 -11 -11 -11 -12 -12 -12 -12 -12
-21 -21 -21 -21 -21 -20 -20 -20 -20 -20 -19 -18 -15 -14 -15 -13 -13 -13 -13 -13 -13 -12 -12 -12 -13 -11 -11 -11 -11 -11 -11 -11 -12 -12 -12 -12 -12 -12 -12 -12 -12 -12 -12 -12
-21 -21 -21 -21 -21 -20 -20 -19 -19 -20 -18 -17 -14 -14 -14 -14 -13 -13 -13 -13 -13 -12 -12 -13 -13 -12 -11 -11 -11 -12 -12 -12 -12 -12 -12 -13 -12 -12 -12 -13 -12 -12 -12 -12
-20 -20 -20 -20 -20 -19 -19 -19 -19 -18 -17 -15 -15 -15 -15 -14 -14 -14 -13 -13 -13 -13 -13 -13 -13 -12 -12 -11 -12 -12 -12 -12 -12 -12 -13 -13 -13 -13 -13 -13 -12 -12 -12 -12
-20 -20 -20 -20 -19 -19 -19 -18 -19 -19 -17 -16 -15 -15 -14 -14 -14 -14 -13 -13 -13 -13 -13 -14 -12 -12 -12 -12 -12 -12 -12 -12 -12 -12 -13 -13 -13 -13 -13 -13 -13 -13 -13 -12
-20 -20 -20 -19 -19 -19 -19 -18 -19 -18 -17 -15 -15 -14 -14 -13 -13 -13 -13 -13 -13 -13 -13 -14 -13 -12 -12 -12 -12 -12 -12 -12 -12 -12 -13 -13 -13 -13 -13 -13 -13 -13 -13 -12

GFSCGP_500_temp_036.txt.gz
Temp
-12 -12 -12 -12 -13 -13 -12 -12 -12 -11 -12 -12 -11 -10 -10 -11 -11 -11 -10 -10 -10 -10 -10 -11 -11 -10 -9 -9 -9 -9 -9 -10 -9 -9 -10 -10 -10 -10 -10 -11 -11 -12 -12 -12
-12 -12 -13 -12 -12 -12 -12 -12 -12 -12 -12 -12 -12 -10 -11 -11 -10 -10 -10 -10 -9 -9 -9 -10 -10 -10 -9 -9 -9 -9 -9 -9 -9 -9 -10 -10 -10 -10 -11 -11 -11 -12 -12 -12
-13 -15 -15 -15 -14 -13 -12 -12 -13 -12 -13 -12 -12 -11 -11 -11 -10 -10 -9 -10 -9 -9 -9 -10 -10 -9 -9 -9 -9 -8 -9 -8 -8 -9 -9 -10 -10 -10 -10 -11 -11 -11 -12 -12
-16 -19 -19 -19 -18 -18 -16 -15 -14 -14 -14 -12 -12 -11 -11 -11 -11 -11 -10 -10 -10 -10 -10 -9 -9 -9 -9 -9 -9 -8 -8 -8 -8 -9 -9 -9 -10 -10 -11 -11 -11 -11 -12 -11
-19 -21 -21 -21 -21 -21 -21 -19 -19 -19 -16 -13 -12 -13 -11 -11 -10 -10 -10 -10 -10 -10 -9 -9 -8 -8 -8 -8 -8 -8 -8 -8 -9 -9 -9 -10 -10 -10 -11 -11 -11 -11 -11 -12
-21 -22 -22 -22 -22 -22 -24 -24 -23 -22 -21 -19 -12 -17 -11 -11 -11 -11 -11 -10 -10 -10 -9 -9 -8 -8 -8 -8 -8 -8 -8 -9 -9 -9 -10 -10 -11 -10 -11 -11 -11 -11 -11 -12
-22 -22 -22 -21 -22 -23 -24 -24 -23 -23 -22 -21 -14 -18 -12 -11 -11 -11 -10 -11 -10 -10 -9 -8 -8 -8 -8 -8 -8 -9 -9 -9 -10 -10 -10 -10 -10 -11 -10 -11 -11 -11 -11 -12
-23 -22 -22 -22 -22 -24 -23 -24 -23 -22 -21 -20 -20 -20 -11 -11 -12 -11 -11 -11 -10 -10 -9 -8 -9 -9 -9 -9 -9 -9 -9 -10 -10 -10 -10 -11 -11 -10 -11 -11 -11 -11 -11 -11
-23 -23 -23 -23 -22 -23 -23 -23 -23 -23 -21 -20 -19 -20 -13 -11 -13 -12 -11 -10 -10 -9 -9 -9 -10 -9 -9 -9 -9 -10 -10 -10 -10 -10 -11 -11 -10 -11 -11 -11 -11 -11 -11 -11
-23 -23 -23 -22 -22 -23 -24 -23 -23 -23 -22 -20 -19 -18 -12 -12 -12 -13 -12 -10 -10 -10 -10 -10 -10 -9 -9 -9 -10 -10 -10 -10 -10 -10 -11 -10 -10 -11 -11 -11 -11 -11 -11 -11
-24 -24 -23 -23 -23 -23 -23 -22 -22 -22 -22 -20 -18 -17 -17 -14 -13 -12 -12 -11 -10 -11 -10 -10 -10 -10 -10 -10 -10 -10 -10 -10 -10 -10 -11 -11 -11 -11 -11 -11 -11 -11 -11 -12
-24 -23 -23 -23 -23 -22 -22 -22 -22 -22 -22 -21 -19 -17 -18 -13 -13 -12 -12 -12 -11 -11 -11 -10 -10 -10 -10 -10 -10 -10 -10 -10 -10 -11 -11 -11 -11 -10 -10 -11 -11 -11 -11 -12
-24 -23 -23 -24 -22 -22 -22 -22 -23 -21 -21 -20 -20 -18 -18 -15 -13 -12 -12 -12 -11 -11 -11 -11 -11 -10 -10 -10 -10 -11 -11 -11 -11 -11 -11 -10 -10 -10 -11 -11 -11 -12 -12 -12
-23 -23 -23 -23 -23 -23 -23 -22 -22 -22 -21 -21 -21 -19 -19 -16 -14 -14 -13 -12 -11 -11 -11 -11 -11 -11 -11 -10 -11 -11 -11 -11 -11 -10 -10 -10 -10 -10 -11 -11 -11 -11 -11 -11
-23 -23 -23 -23 -23 -23 -23 -23 -22 -22 -22 -23 -21 -20 -20 -17 -15 -14 -13 -13 -12 -12 -11 -11 -11 -11 -11 -11 -11 -11 -11 -11 -10 -10 -10 -10 -10 -10 -11 -11 -11 -11 -11 -11
-23 -23 -24 -23 -23 -23 -23 -22 -22 -22 -21 -21 -21 -19 -17 -16 -15 -13 -13 -13 -12 -12 -11 -11 -11 -11 -11 -11 -11 -11 -11 -11 -10 -10 -10 -10 -10 -11 -11 -11 -11 -11 -12 -12
-22 -23 -23 -23 -23 -23 -22 -23 -23 -23 -22 -22 -20 -19 -18 -17 -15 -13 -13 -12 -12 -12 -12 -11 -11 -11 -11 -11 -11 -11 -11 -11 -10 -10 -11 -10 -11 -11 -11 -11 -11 -11 -12 -12
-22 -22 -22 -22 -22 -22 -22 -22 -23 -23 -23 -22 -19 -18 -18 -17 -15 -14 -13 -12 -13 -12 -12 -11 -12 -12 -12 -11 -11 -11 -11 -10 -10 -11 -11 -11 -11 -11 -11 -11 -11 -11 -12 -12
-21 -22 -22 -22 -22 -22 -22 -22 -22 -21 -21 -21 -18 -18 -18 -17 -16 -14 -14 -12 -13 -12 -12 -12 -12 -12 -12 -11 -11 -11 -11 -10 -11 -11 -11 -11 -11 -11 -11 -11 -11 -12 -12 -12
-21 -21 -21 -22 -22 -21 -21 -21 -21 -21 -20 -19 -18 -17 -17 -16 -16 -15 -13 -13 -12 -12 -12 -12 -12 -12 -12 -11 -11 -11 -11 -11 -11 -11 -11 -11 -11 -11 -11 -11 -11 -12 -12 -12
-21 -21 -21 -21 -21 -20 -20 -20 -21 -20 -20 -19 -17 -16 -16 -15 -16 -15 -13 -13 -13 -12 -12 -12 -12 -12 -12 -11 -11 -11 -11 -11 -11 -11 -11 -11 -11 -11 -11 -11 -11 -12 -12 -12
-21 -21 -21 -21 -21 -21 -21 -20 -19 -20 -20 -18 -16 -16 -17 -17 -14 -14 -13 -13 -13 -12 -12 -12 -12 -13 -12 -11 -11 -11 -11 -11 -11 -11 -11 -11 -11 -11 -11 -12 -12 -12 -12 -12
-21 -21 -21 -21 -21 -20 -20 -19 -19 -19 -18 -17 -15 -16 -17 -15 -14 -13 -13 -13 -13 -13 -12 -12 -13 -13 -12 -11 -11 -11 -11 -11 -11 -11 -12 -12 -12 -11 -12 -12 -12 -12 -12 -12
-21 -20 -20 -20 -20 -20 -19 -19 -19 -19 -18 -16 -15 -15 -16 -14 -13 -13 -13 -13 -13 -13 -13 -13 -13 -12 -12 -12 -11 -11 -11 -11 -11 -12 -12 -12 -12 -12 -12 -12 -12 -12 -12 -12
-21 -20 -20 -20 -20 -20 -19 -19 -20 -18 -17 -15 -15 -14 -15 -14 -13 -13 -13 -13 -13 -13 -13 -13 -13 -12 -12 -12 -12 -11 -11 -12 -12 -12 -12 -12 -13 -12 -12 -12 -12 -12 -12 -12
-21 -20 -20 -20 -19 -19 -18 -19 -19 -18 -17 -15 -15 -14 -14 -14 -13 -13 -13 -13 -13 -13 -13 -13 -12 -12 -12 -12 -12 -11 -12 -12 -12 -12 -13 -13 -13 -13 -12 -12 -13 -13 -12 -12

GFSCGP_500_temp_042.txt.gz
Temp
-13 -13 -13 -13 -13 -12 -13 -12 -11 -11 -11 -14 -16 -15 -10 -10 -10 -10 -10 -10 -10 -11 -11 -11 -11 -11 -11 -11 -11 -9 -9 -9 -10 -10 -10 -10 -10 -10 -10 -10 -10 -10 -9 -10
-14 -14 -14 -14 -13 -13 -13 -13 -12 -12 -12 -14 -13 -12 -10 -10 -10 -11 -11 -11 -11 -11 -11 -12 -12 -12 -12 -11 -9 -8 -8 -9 -9 -10 -10 -10 -10 -10 -10 -10 -10 -10 -10 -10
-15 -15 -15 -15 -14 -15 -15 -14 -13 -13 -13 -14 -12 -13 -12 -10 -11 -10 -10 -10 -10 -11 -11 -11 -11 -12 -12 -12 -9 -8 -8 -9 -10 -10 -10 -10 -10 -10 -10 -10 -10 -10 -10 -10
-15 -16 -16 -15 -15 -16 -15 -16 -15 -15 -14 -14 -14 -13 -13 -11 -11 -11 -11 -11 -11 -10 -11 -11 -11 -10 -10 -10 -10 -9 -9 -10 -10 -9 -10 -10 -10 -10 -10 -10 -9 -10 -10 -10
-16 -17 -18 -17 -17 -20 -19 -19 -19 -18 -17 -16 -15 -16 -11 -12 -11 -12 -11 -12 -12 -11 -10 -11 -11 -10 -10 -10 -10 -11 -11 -10 -9 -10 -10 -9 -9 -10 -10 -9 -9 -10 -10 -10
-20 -21 -22 -21 -20 -20 -19 -18 -19 -20 -21 -19 -14 -18 -12 -12 -12 -12 -12 -13 -13 -12 -12 -11 -11 -11 -10 -9 -9 -9 -10 -10 -9 -9 -9 -9 -9 -9 -9 -9 -9 -9 -9 -10
-22 -22 -22 -22 -21 -21 -21 -20 -21 -21 -21 -19 -17 -20 -18 -12 -13 -13 -14 -15 -15 -13 -12 -11 -10 -10 -10 -10 -9 -9 -9 -9 -8 -8 -8 -9 -9 -9 -9 -9 -9 -9 -10 -10
-22 -22 -22 -22 -22 -21 -20 -20 -20 -21 -21 -20 -20 -20 -19 -18 -15 -15 -14 -13 -16 -14 -12 -11 -10 -11 -10 -10 -9 -9 -9 -8 -8 -8 -8 -9 -8 -9 -9 -9 -9 -10 -10 -10
-22 -21 -23 -23 -22 -22 -21 -22 -21 -20 -21 -20 -21 -20 -19 -18 -16 -15 -14 -16 -16 -14 -13 -11 -11 -11 -10 -10 -9 -9 -9 -8 -8 -8 -9 -9 -9 -9 -10 -9 -10 -10 -10 -11
-21 -21 -23 -23 -22 -22 -21 -21 -21 -21 -21 -20 -21 -20 -20 -19 -19 -18 -17 -16 -15 -15 -13 -11 -11 -11 -10 -10 -9 -9 -9 -9 -9 -9 -9 -9 -10 -9 -9 -10 -9 -10 -11 -11
-21 -21 -21 -22 -22 -22 -22 -21 -21 -21 -21 -21 -20 -20 -20 -19 -18 -18 -16 -16 -15 -15 -14 -12 -11 -11 -11 -10 -10 -9 -9 -9 -9 -9 -9 -9 -10 -10 -9 -9 -10 -11 -11 -11
-21 -22 -22 -21 -21 -22 -21 -21 -21 -22 -21 -21 -21 -19 -20 -18 -18 -18 -16 -15 -16 -15 -14 -12 -11 -11 -11 -10 -10 -10 -10 -9 -9 -9 -10 -10 -10 -10 -10 -10 -10 -11 -11 -11
-21 -21 -21 -21 -22 -21 -21 -21 -21 -21 -21 -20 -20 -19 -20 -19 -17 -18 -16 -16 -15 -14 -13 -12 -11 -11 -11 -10 -10 -10 -10 -10 -10 -10 -10 -10 -10 -10 -10 -10 -11 -11 -11 -11
-21 -21 -22 -21 -22 -22 -22 -21 -21 -22 -21 -21 -20 -20 -20 -18 -17 -17 -16 -16 -16 -14 -14 -11 -11 -11 -10 -10 -10 -10 -10 -10 -10 -10 -10 -10 -10 -10 -10 -11 -11 -11 -10 -10
-21 -21 -22 -22 -22 -22 -22 -21 -20 -22 -21 -21 -21 -21 -20 -19 -17 -16 -17 -17 -17 -16 -12 -12 -11 -11 -11 -10 -11 -11 -11 -10 -10 -10 -10 -10 -10 -10 -10 -10 -10 -10 -10 -11
-21 -21 -21 -21 -21 -21 -21 -21 -20 -20 -22 -21 -21 -21 -21 -19 -18 -18 -18 -18 -17 -14 -13 -13 -13 -13 -12 -12 -11 -11 -11 -11 -10 -10 -10 -10 -11 -10 -10 -10 -10 -10 -11 -11
-21 -21 -21 -21 -21 -21 -21 -21 -22 -22 -22 -22 -21 -21 -21 -21 -20 -20 -18 -15 -15 -14 -13 -13 -13 -13 -11 -11 -12 -11 -11 -11 -11 -11 -11 -11 -10 -10 -10 -11 -10 -11 -11 -11
-20 -21 -21 -21 -21 -21 -21 -21 -21 -21 -21 -21 -21 -21 -21 -21 -20 -18 -16 -15 -15 -13 -14 -13 -13 -13 -13 -12 -11 -11 -11 -11 -11 -11 -11 -11 -11 -11 -11 -10 -11 -11 -11 -11
-20 -21 -21 -21 -21 -21 -21 -20 -20 -21 -20 -22 -21 -20 -20 -20 -19 -18 -18 -16 -14 -13 -13 -13 -13 -12 -13 -12 -12 -12 -11 -11 -11 -11 -11 -11 -11 -11 -10 -11 -11 -10 -11 -11
-21 -21 -21 -21 -21 -21 -20 -21 -20 -20 -19 -20 -20 -19 -19 -19 -18 -19 -17 -15 -15 -13 -13 -12 -13 -13 -12 -12 -12 -11 -12 -12 -11 -11 -11 -11 -11 -10 -10 -10 -10 -10 -11 -11
-21 -21 -21 -21 -21 -20 -20 -21 -20 -20 -19 -20 -20 -19 -19 -18 -17 -17 -16 -14 -13 -13 -13 -13 -12 -12 -12 -12 -12 -12 -12 -11 -11 -11 -11 -11 -11 -10 -11 -10 -10 -11 -11 -11
-21 -20 -21 -21 -21 -21 -21 -21 -21 -20 -20 -19 -19 -17 -17 -16 -17 -17 -15 -13 -12 -13 -13 -12 -11 -12 -12 -12 -12 -12 -12 -11 -11 -11 -11 -11 -11 -11 -11 -11 -11 -11 -11 -11
-20 -20 -21 -21 -21 -21 -21 -21 -20 -20 -19 -19 -19 -17 -16 -16 -17 -16 -15 -14 -13 -13 -13 -12 -12 -12 -12 -12 -12 -12 -12 -11 -11 -11 -11 -11 -11 -11 -11 -11 -11 -11 -12 -12
-20 -21 -21 -21 -21 -21 -20 -20 -20 -19 -19 -19 -18 -16 -15 -16 -16 -15 -14 -14 -13 -13 -12 -12 -11 -12 -12 -12 -12 -12 -11 -11 -11 -11 -11 -11 -11 -11 -11 -11 -12 -12 -12 -12
-20 -20 -20 -21 -21 -20 -20 -19 -19 -19 -19 -19 -16 -15 -15 -15 -15 -15 -14 -13 -13 -13 -13 -12 -12 -13 -12 -12 -12 -11 -11 -11 -11 -11 -12 -12 -12 -11 -11 -12 -12 -12 -12 -12
-20 -20 -20 -21 -20 -19 -19 -19 -19 -19 -19 -17 -16 -15 -15 -16 -15 -14 -13 -13 -13 -13 -12 -12 -12 -12 -12 -12 -11 -11 -11 -11 -11 -11 -12 -12 -12 -12 -12 -12 -12 -12 -12 -12

GFSCGP_500_temp_045.txt.gz
Temp
-13 -13 -13 -13 -13 -13 -13 -12 -12 -11 -12 -12 -13 -12 -10 -10 -10 -11 -11 -11 -10 -10 -12 -12 -12 -12 -11 -10 -9 -10 -10 -9 -10 -10 -9 -9 -9 -9 -9 -9 -10 -9 -10 -10
-14 -14 -14 -13 -13 -14 -14 -13 -12 -12 -13 -14 -13 -12 -11 -11 -10 -10 -10 -11 -11 -10 -10 -11 -12 -12 -12 -12 -11 -11 -10 -10 -9 -9 -9 -9 -9 -10 -9 -10 -10 -10 -10 -10
-14 -14 -14 -14 -14 -15 -14 -14 -14 -13 -14 -14 -13 -13 -12 -11 -11 -11 -11 -11 -10 -10 -10 -10 -11 -11 -11 -12 -12 -11 -10 -9 -8 -9 -9 -9 -10 -9 -9 -9 -10 -10 -10 -10
-15 -15 -15 -15 -15 -16 -15 -16 -15 -15 -15 -14 -16 -12 -12 -11 -11 -11 -11 -12 -11 -11 -10 -10 -10 -11 -11 -11 -10 -9 -10 -9 -9 -8 -9 -9 -10 -10 -10 -10 -9 -9 -10 -10
-15 -15 -15 -15 -16 -16 -15 -17 -16 -15 -15 -16 -14 -15 -10 -11 -11 -12 -12 -12 -12 -12 -12 -11 -11 -11 -11 -11 -10 -9 -8 -9 -9 -9 -9 -10 -9 -10 -10 -9 -9 -9 -10 -10
-17 -19 -19 -18 -18 -19 -18 -19 -18 -18 -19 -18 -15 -17 -12 -13 -12 -13 -13 -13 -13 -13 -13 -12 -11 -11 -12 -11 -11 -10 -9 -9 -9 -9 -9 -9 -9 -9 -9 -9 -9 -10 -10 -10
-19 -20 -20 -20 -20 -21 -21 -21 -21 -20 -20 -19 -18 -20 -16 -14 -15 -14 -14 -14 -14 -14 -14 -13 -11 -10 -11 -12 -11 -11 -10 -9 -9 -9 -9 -9 -9 -9 -9 -9 -9 -10 -10 -10
-20 -19 -20 -20 -21 -21 -22 -22 -21 -21 -20 -20 -20 -19 -17 -16 -18 -18 -15 -14 -15 -15 -14 -12 -11 -11 -10 -11 -11 -11 -10 -9 -9 -9 -9 -9 -9 -9 -8 -9 -10 -10 -10 -10
-20 -19 -20 -21 -21 -21 -21 -21 -21 -20 -21 -20 -20 -19 -20 -20 -19 -18 -16 -15 -14 -14 -14 -13 -12 -11 -10 -10 -11 -11 -10 -10 -9 -9 -9 -9 -9 -8 -9 -10 -10 -10 -10 -10
-20 -19 -21 -21 -21 -22 -22 -22 -22 -21 -21 -21 -20 -19 -20 -20 -20 -20 -18 -16 -15 -15 -15 -13 -13 -12 -11 -10 -10 -10 -10 -10 -9 -9 -9 -9 -9 -8 -9 -10 -10 -10 -10 -10
-20 -21 -20 -21 -21 -22 -22 -22 -22 -21 -21 -21 -20 -20 -20 -20 -20 -20 -20 -18 -16 -17 -16 -12 -14 -12 -11 -11 -10 -10 -10 -10 -9 -9 -9 -9 -9 -9 -9 -9 -10 -10 -10 -10
-20 -20 -20 -20 -21 -21 -22 -21 -22 -21 -21 -21 -21 -20 -21 -20 -20 -19 -19 -18 -17 -17 -14 -12 -13 -12 -11 -11 -10 -10 -10 -10 -10 -10 -10 -10 -10 -9 -9 -10 -10 -10 -10 -11
-20 -21 -20 -20 -21 -22 -22 -21 -21 -21 -22 -21 -22 -21 -21 -20 -20 -19 -19 -18 -17 -17 -15 -13 -14 -11 -12 -11 -10 -10 -10 -10 -10 -10 -10 -10 -10 -10 -10 -10 -10 -10 -11 -11
-20 -21 -21 -21 -21 -22 -21 -22 -21 -22 -21 -22 -21 -21 -21 -21 -19 -18 -17 -17 -16 -15 -15 -13 -12 -12 -12 -12 -12 -10 -10 -10 -11 -10 -10 -10 -10 -10 -10 -10 -10 -10 -10 -10
-20 -20 -21 -21 -22 -21 -21 -21 -21 -21 -22 -22 -21 -21 -21 -21 -20 -18 -18 -17 -16 -15 -16 -13 -13 -14 -13 -13 -12 -11 -11 -11 -10 -10 -10 -10 -11 -11 -10 -11 -10 -10 -10 -10
-20 -20 -20 -21 -21 -20 -20 -21 -21 -21 -21 -22 -22 -21 -21 -21 -21 -19 -18 -18 -16 -14 -15 -13 -13 -13 -12 -12 -8 -11 -11 -11 -10 -10 -10 -11 -11 -11 -11 -10 -10 -10 -10 -10
-20 -20 -20 -20 -20 -20 -21 -20 -20 -20 -21 -21 -21 -21 -21 -20 -21 -19 -18 -16 -16 -14 -13 -13 -13 -13 -12 -11 -12 -12 -11 -11 -10 -10 -11 -11 -11 -11 -10 -10 -10 -10 -10 -10
-20 -20 -20 -20 -20 -20 -20 -20 -21 -21 -21 -22 -22 -21 -21 -21 -20 -19 -18 -16 -15 -14 -13 -14 -12 -13 -9 -11 -13 -12 -11 -11 -11 -11 -11 -11 -11 -11 -10 -11 -11 -10 -11 -11
-20 -20 -20 -20 -20 -20 -21 -20 -20 -21 -21 -21 -21 -21 -20 -20 -19 -19 -18 -17 -16 -14 -14 -13 -12 -12 -11 -10 -12 -12 -11 -11 -11 -11 -11 -11 -11 -11 -11 -11 -10 -11 -11 -11
-20 -20 -20 -21 -20 -20 -20 -20 -20 -21 -20 -20 -20 -20 -20 -19 -19 -18 -19 -15 -15 -14 -14 -13 -12 -13 -11 -11 -12 -11 -11 -11 -11 -11 -11 -11 -11 -11 -11 -11 -11 -11 -11 -11
-20 -20 -20 -21 -21 -21 -21 -21 -21 -21 -21 -21 -20 -19 -19 -17 -17 -18 -18 -14 -14 -13 -13 -13 -13 -11 -11 -12 -12 -11 -11 -11 -11 -11 -11 -11 -11 -11 -11 -10 -10 -11 -11 -11
-20 -20 -20 -20 -21 -21 -21 -21 -20 -20 -21 -20 -19 -19 -16 -16 -16 -17 -16 -13 -14 -13 -13 -14 -13 -12 -13 -13 -11 -10 -11 -11 -10 -11 -11 -11 -11 -11 -11 -10 -11 -11 -11 -11
-20 -20 -21 -21 -21 -21 -21 -20 -20 -19 -19 -19 -19 -17 -14 -15 -16 -16 -14 -14 -14 -14 -13 -14 -13 -12 -13 -12 -11 -11 -10 -10 -11 -11 -11 -11 -11 -11 -11 -11 -11 -11 -11 -12
-21 -21 -20 -21 -20 -20 -21 -20 -20 -19 -19 -19 -19 -16 -14 -15 -15 -14 -14 -14 -14 -13 -13 -12 -12 -10 -11 -11 -11 -11 -10 -11 -11 -11 -11 -11 -11 -11 -11 -11 -11 -11 -12 -12
-21 -21 -20 -21 -21 -21 -20 -19 -19 -19 -20 -19 -19 -16 -14 -15 -15 -14 -14 -14 -14 -14 -14 -12 -12 -12 -12 -13 -11 -11 -11 -11 -11 -11 -11 -11 -11 -11 -11 -12 -12 -12 -12 -12
-21 -20 -20 -21 -20 -21 -20 -19 -19 -20 -19 -19 -19 -16 -14 -15 -14 -14 -15 -14 -14 -13 -12 -12 -11 -12 -13 -13 -11 -11 -11 -12 -11 -11 -11 -11 -11 -12 -12 -12 -12 -12 -12 -12

GFSCGP_500_temp_048.txt.gz
Temp
-13 -13 -13 -13 -13 -12 -12 -12 -12 -12 -12 -12 -12 -10 -10 -11 -11 -10 -10 -10 -10 -10 -11 -12 -12 -12 -12 -11 -10 -10 -10 -9 -10 -11 -10 -9 -8 -9 -8 -9 -9 -10 -10 -10
-14 -14 -14 -13 -13 -13 -13 -13 -13 -13 -13 -13 -13 -12 -11 -11 -11 -11 -11 -10 -10 -11 -10 -11 -12 -13 -12 -12 -12 -11 -10 -10 -9 -9 -9 -8 -8 -9 -9 -9 -10 -10 -11 -10
-14 -14 -14 -14 -14 -14 -14 -13 -13 -13 -13 -13 -13 -12 -11 -11 -11 -11 -11 -11 -11 -11 -11 -11 -11 -11 -12 -13 -13 -12 -11 -10 -9 -9 -9 -9 -9 -9 -9 -10 -10 -10 -11 -9
-14 -14 -14 -14 -14 -14 -15 -15 -15 -14 -14 -14 -15 -12 -12 -11 -12 -11 -11 -11 -11 -11 -11 -11 -11 -11 -12 -12 -13 -12 -12 -11 -9 -10 -10 -9 -9 -9 -9 -10 -9 -10 -10 -10
-15 -15 -15 -15 -16 -16 -15 -16 -16 -15 -15 -15 -13 -15 -10 -12 -12 -12 -12 -12 -12 -12 -12 -11 -11 -11 -11 -11 -12 -12 -12 -11 -11 -10 -9 -9 -9 -9 -9 -9 -9 -9 -9 -9
-15 -15 -15 -17 -17 -18 -18 -17 -16 -16 -16 -16 -15 -18 -11 -12 -12 -13 -14 -14 -13 -12 -12 -11 -11 -11 -11 -11 -11 -12 -11 -11 -11 -10 -9 -9 -9 -9 -9 -9 -9 -9 -10 -10
-17 -18 -19 -19 -19 -19 -20 -20 -19 -18 -19 -18 -20 -18 -13 -13 -15 -14 -13 -14 -14 -13 -12 -12 -12 -12 -11 -11 -11 -11 -11 -11 -10 -10 -10 -10 -9 -9 -9 -9 -9 -9 -10 -10
-17 -18 -20 -20 -20 -20 -20 -20 -21 -22 -21 -20 -21 -19 -18 -16 -18 -16 -15 -14 -14 -14 -13 -12 -12 -12 -11 -10 -11 -11 -11 -10 -10 -10 -10 -10 -10 -10 -9 -9 -9 -9 -10 -10
-19 -19 -20 -20 -20 -21 -21 -20 -21 -22 -21 -21 -20 -20 -19 -19 -19 -19 -18 -16 -15 -14 -14 -13 -13 -12 -11 -11 -10 -11 -11 -10 -10 -10 -10 -10 -10 -9 -9 -9 -10 -10 -10 -10
-19 -19 -19 -20 -21 -21 -22 -21 -21 -21 -22 -21 -20 -20 -20 -20 -20 -20 -19 -19 -18 -15 -14 -14 -13 -13 -12 -11 -11 -10 -11 -10 -10 -10 -10 -10 -10 -10 -10 -10 -10 -10 -10 -10
-20 -19 -19 -20 -21 -20 -21 -22 -21 -21 -21 -21 -21 -20 -21 -20 -20 -19 -19 -19 -18 -17 -16 -14 -13 -14 -12 -12 -11 -10 -11 -10 -11 -10 -10 -10 -10 -10 -11 -10 -10 -10 -10 -10
-20 -19 -19 -20 -20 -21 -21 -21 -22 -22 -22 -21 -21 -20 -21 -21 -21 -20 -19 -20 -19 -18 -16 -14 -14 -13 -12 -12 -11 -11 -10 -11 -11 -11 -11 -10 -10 -11 -10 -10 -10 -10 -10 -10
-20 -20 -19 -20 -21 -21 -22 -22 -22 -22 -22 -21 -22 -20 -21 -21 -20 -20 -19 -18 -19 -19 -17 -16 -15 -13 -13 -12 -11 -10 -10 -10 -11 -11 -11 -10 -11 -10 -10 -10 -10 -10 -10 -11
-20 -20 -20 -20 -21 -21 -21 -22 -22 -22 -21 -21 -21 -20 -20 -21 -20 -20 -19 -18 -18 -19 -19 -17 -15 -13 -12 -12 -11 -11 -11 -11 -11 -11 -11 -11 -11 -10 -11 -10 -11 -11 -11 -11
-20 -20 -20 -20 -20 -20 -21 -22 -22 -22 -21 -21 -20 -21 -21 -20 -20 -20 -20 -19 -18 -18 -19 -18 -14 -15 -14 -13 -12 -12 -12 -11 -11 -11 -11 -11 -11 -11 -11 -11 -11 -11 -11 -11
-20 -20 -20 -20 -20 -21 -20 -21 -21 -21 -21 -21 -20 -21 -22 -20 -20 -20 -21 -19 -18 -18 -18 -17 -16 -14 -13 -14 -14 -12 -12 -12 -11 -11 -11 -11 -11 -11 -11 -11 -11 -11 -11 -10
-20 -20 -20 -20 -20 -21 -21 -21 -21 -21 -21 -21 -20 -21 -20 -21 -20 -20 -19 -18 -17 -17 -16 -15 -14 -13 -13 -14 -13 -12 -12 -12 -12 -11 -11 -11 -11 -11 -11 -11 -11 -10 -10 -10
-20 -20 -20 -20 -20 -20 -20 -21 -21 -21 -21 -21 -21 -21 -20 -20 -20 -20 -20 -18 -17 -17 -15 -14 -14 -14 -13 -13 -14 -11 -13 -12 -12 -11 -11 -12 -11 -11 -11 -11 -10 -10 -11 -11
-20 -20 -20 -20 -20 -21 -21 -21 -21 -21 -21 -21 -21 -21 -20 -20 -19 -19 -19 -20 -17 -16 -15 -15 -14 -14 -13 -13 -13 -12 -12 -12 -12 -12 -12 -12 -11 -11 -11 -10 -10 -11 -11 -11
-20 -20 -20 -20 -21 -21 -21 -21 -21 -21 -20 -21 -20 -20 -20 -19 -17 -18 -18 -19 -17 -16 -15 -14 -13 -13 -12 -13 -11 -12 -12 -13 -12 -12 -12 -11 -11 -11 -11 -10 -10 -11 -11 -11
-20 -20 -20 -21 -21 -21 -21 -21 -21 -21 -20 -20 -20 -19 -18 -17 -16 -18 -18 -17 -16 -16 -15 -14 -13 -12 -12 -11 -11 -12 -13 -12 -12 -12 -11 -11 -11 -11 -11 -10 -10 -11 -10 -10
-20 -21 -21 -21 -21 -21 -21 -21 -21 -20 -20 -18 -18 -18 -17 -16 -16 -16 -17 -16 -16 -15 -15 -14 -14 -12 -11 -11 -10 -13 -12 -12 -12 -12 -11 -11 -11 -11 -11 -10 -10 -10 -10 -11
-21 -21 -21 -21 -21 -21 -21 -21 -21 -20 -19 -18 -18 -18 -16 -15 -15 -15 -15 -15 -16 -15 -14 -13 -14 -12 -12 -12 -12 -13 -12 -12 -12 -11 -11 -11 -10 -10 -10 -10 -10 -10 -10 -11
-21 -21 -21 -21 -21 -21 -21 -21 -20 -19 -19 -18 -18 -17 -15 -15 -15 -15 -14 -14 -14 -14 -13 -14 -13 -12 -12 -13 -12 -13 -12 -12 -12 -11 -11 -11 -10 -10 -10 -10 -10 -10 -11 -11
-21 -21 -21 -20 -21 -20 -21 -20 -19 -19 -19 -19 -19 -18 -15 -15 -15 -15 -14 -14 -14 -14 -14 -14 -13 -12 -13 -12 -12 -13 -12 -12 -11 -11 -11 -11 -11 -10 -10 -10 -10 -11 -11 -11
-21 -21 -21 -20 -20 -21 -21 -20 -19 -20 -20 -20 -19 -19 -16 -15 -15 -15 -14 -14 -14 -14 -13 -13 -13 -11 -12 -12 -12 -12 -12 -12 -12 -12 -11 -11 -11 -11 -11 -11 -11 -11 -12 -12